GFSNE_con_mlcape_000.txt.gz
CAPE
0 0 0 0 0 0 0 0 0 0 0 0 0 0 0 0 0 0 0 0 0 0 0 0 0 0 0 0 4 99 258 554 847 1083 1108 1272 1315 1206
0 0 0 38 40 6 0 0 0 0 0 0 0 0 0 0 0 0 0 0 0 0 0 0 0 0 0 0 0 0 19 28 241 654 904 854 946 963
12 27 26 33 37 23 0 0 0 0 0 0 0 0 0 0 0 0 0 0 0 0 0 0 0 0 0 0 0 0 0 0 0 4 290 709 623 766
0 29 46 53 28 30 21 3 0 0 0 0 0 0 0 0 0 0 0 0 0 0 0 0 0 0 0 0 0 0 0 0 0 0 0 313 513 506
9 31 24 31 0 0 0 0 0 11 1 0 0 0 0 0 0 0 0 0 0 0 0 0 0 0 0 0 0 0 0 0 0 0 0 43 255 275
27 48 10 1 0 0 0 0 0 5 21 5 0 0 0 0 0 0 0 0 0 0 0 0 0 0 0 0 0 0 0 0 0 0 0 0 0 85
41 27 4 0 0 0 0 0 0 0 17 6 0 0 0 0 0 0 0 0 0 0 0 0 0 0 0 0 0 0 0 0 0 0 0 0 0 0
34 6 0 0 0 0 7 15 11 0 24 25 0 0 0 0 0 0 0 0 1 0 0 0 7 5 2 0 0 6 0 0 0 0 0 0 0 0
12 0 0 0 0 0 0 0 20 56 88 73 0 0 0 0 0 1 0 1 5 0 3 4 4 2 7 2 0 0 0 0 0 0 0 0 0 0
6 0 0 0 0 0 0 0 3 1 0 0 0 0 0 0 4 3 3 6 2 6 8 5 6 3 7 3 0 0 0 0 0 0 0 0 0 0
1 0 0 0 0 0 0 0 0 0 0 0 0 0 0 0 0 2 0 2 9 7 5 5 2 4 5 7 3 0 0 0 0 0 0 0 0 0
0 0 0 0 0 0 0 0 0 0 0 0 0 0 1 0 0 1 1 7 8 3 3 4 5 3 7 0 0 1 0 0 0 0 0 0 0 0
0 0 0 0 0 0 0 0 0 0 0 0 0 0 0 0 0 0 0 2 2 4 2 3 3 13 6 2 38 0 0 34 0 0 0 0 0 0
0 0 0 0 0 0 0 0 0 0 0 0 0 0 0 0 0 0 0 2 2 3 3 5 3 6 4 3 5 92 110 0 0 0 0 0 0 0
0 0 0 0 0 0 0 0 0 0 0 0 0 0 0 0 0 0 0 2 0 1 9 3 3 5 2 29 342 210 30 0 1 0 0 0 0 0
0 0 0 0 0 0 0 0 0 0 0 0 0 0 0 0 0 0 3 2 2 0 2 2 2 2 0 0 44 234 59 50 0 0 1 1 0 0
0 0 0 0 0 0 0 0 0 0 0 0 0 0 0 0 0 0 0 3 1 1 2 1 2 2 0 0 34 211 50 0 0 1 2 0 1 3
0 0 0 0 0 0 0 0 0 0 0 0 0 0 0 0 0 0 0 1 0 2 2 5 2 0 2 1 1 1 73 53 2 1 3 1 0 1
0 0 0 0 0 0 0 0 0 0 0 0 0 0 0 0 0 0 0 0 0 1 0 8 3 3 3 2 2 1 0 22 24 2 2 1 1 0
0 0 0 0 0 0 0 0 0 0 0 0 0 0 0 0 0 0 0 0 0 1 0 1 1 2 2 1 4 1 2 1 9 2 13 20 11 0
0 0 0 0 0 0 0 0 0 0 0 0 0 0 0 0 0 0 0 0 0 0 0 0 1 1 1 0 0 5 5 2 2 0 2 63 73 34
0 0 0 0 0 0 0 0 0 0 0 0 0 0 0 0 0 0 0 0 0 0 0 0 0 0 0 0 1 0 2 2 1 1 3 2 8 20
0 0 0 0 0 0 0 0 0 0 0 0 0 0 0 0 0 0 0 0 0 0 0 0 0 0 0 0 0 0 0 2 2 2 0 0 1 4

GFSNE_con_mlcape_003.txt.gz
CAPE
41 86 34 42 58 70 67 47 30 10 7 1 0 0 0 0 0 0 0 0 0 0 0 0 0 0 0 0 0 0 0 2 146 702 925 883 1083 1484
0 68 96 82 108 109 107 84 43 28 2 7 9 0 0 0 0 0 0 0 0 0 0 0 0 0 0 0 0 0 0 0 0 31 307 726 772 1072
42 39 91 74 51 105 129 88 74 55 46 0 2 12 0 0 1 2 0 0 0 0 0 0 0 0 0 0 0 0 0 0 0 0 12 155 531 806
0 43 72 106 141 138 76 70 56 83 50 24 0 0 6 1 6 22 2 0 0 0 0 0 0 0 0 0 0 0 0 0 0 0 0 0 31 325
27 44 99 177 72 43 69 41 17 45 71 63 17 1 0 16 15 30 31 2 1 0 0 0 0 0 0 0 0 0 0 0 0 0 0 0 0 0
47 83 163 70 33 32 44 42 69 71 47 59 34 7 5 23 66 61 15 11 5 0 0 0 0 0 0 0 0 0 0 0 0 0 0 0 0 0
176 219 102 130 42 9 3 0 36 62 37 23 33 24 12 23 23 25 17 19 6 7 3 0 0 0 0 0 0 0 0 0 0 0 0 0 0 0
281 87 87 58 15 0 0 0 4 30 51 22 29 30 69 49 34 55 21 8 1 3 7 4 2 0 0 0 2 0 0 0 0 0 0 0 0 0
155 157 158 107 27 41 0 0 5 4 22 47 102 121 97 59 40 9 2 7 4 4 8 2 6 0 0 0 1 0 0 0 0 0 0 0 0 0
203 153 160 124 111 17 2 0 10 38 69 37 37 36 15 1 1 5 8 4 6 7 26 11 1 0 1 8 13 7 0 0 0 0 0 0 0 0
173 192 64 35 0 0 0 0 0 0 1 0 0 0 0 0 0 3 2 9 5 7 0 0 0 3 8 7 8 6 0 0 0 0 0 0 0 0
125 39 0 0 0 0 0 0 0 7 0 0 0 0 0 0 0 2 1 1 3 0 0 3 4 9 7 2 0 1 4 0 0 0 0 0 0 0
103 61 0 0 0 0 0 0 0 0 0 0 0 0 0 0 0 1 0 5 6 3 0 2 6 5 3 2 3 0 10 12 3 0 0 0 0 0
164 22 0 0 0 0 0 0 0 0 0 0 0 0 0 0 0 0 0 0 0 5 0 2 3 3 5 2 3 0 5 15 34 12 0 2 1 0
0 0 0 0 0 0 0 0 0 0 0 0 0 0 0 0 0 0 0 0 0 0 0 0 2 3 4 2 5 2 31 52 139 23 1 0 0 3
0 0 0 0 0 0 0 0 0 0 0 0 0 0 0 0 0 0 0 0 1 0 0 0 7 3 2 1 3 0 8 195 52 3 1 4 3 0
0 0 0 0 0 0 0 0 0 0 0 0 0 0 0 0 0 0 0 0 2 3 1 0 1 3 1 1 1 3 125 204 51 3 2 0 2 2
0 0 0 0 0 0 0 0 0 0 0 0 0 0 0 0 0 0 0 0 2 4 2 1 2 2 5 2 0 0 0 116 61 2 2 2 0 4
0 0 0 0 0 0 0 0 0 0 0 0 0 0 0 0 0 0 0 0 0 0 1 2 2 2 2 3 0 0 1 2 16 7 1 3 2 3
0 0 0 0 0 0 0 0 0 0 0 0 0 0 0 0 0 0 0 0 0 0 0 2 1 0 1 2 4 3 1 2 2 34 19 11 1 0
0 0 0 0 0 0 0 0 0 0 0 0 0 0 0 0 0 0 0 0 0 0 0 0 0 2 2 0 1 2 1 0 0 2 0 12 24 1
0 0 0 0 0 0 0 0 0 0 0 0 0 0 0 0 0 0 0 0 0 0 0 0 0 0 1 3 3 2 2 0 4 1 4 4 8 74
0 0 0 0 0 0 0 0 0 0 0 0 0 0 0 0 0 0 0 0 0 0 0 0 0 0 1 2 3 3 3 1 2 3 0 0 3 1

GFSNE_con_mlcape_006.txt.gz
CAPE
2 6 26 13 17 38 50 43 32 12 7 14 23 29 11 24 9 0 0 0 0 0 0 0 0 0 0 0 0 0 0 0 0 0 22 256 1108 1069
0 0 3 10 37 48 56 51 37 16 0 4 0 9 24 6 43 2 1 0 0 0 0 0 0 0 0 0 0 0 0 0 0 0 0 0 106 901
0 0 19 98 49 33 40 25 28 35 32 0 1 1 11 41 35 69 41 23 13 1 0 0 0 0 0 0 0 0 0 0 0 0 0 0 0 78
0 0 63 77 86 89 79 55 30 25 57 22 0 3 13 5 27 57 46 44 36 31 10 0 0 0 0 0 0 0 0 0 0 0 0 0 0 0
0 16 58 90 79 57 64 20 43 47 58 63 59 68 19 8 29 48 65 33 27 40 24 0 0 0 0 0 0 0 0 0 0 0 0 0 0 0
35 90 142 201 91 94 79 79 99 82 73 48 74 43 39 31 41 33 23 43 20 37 28 3 0 0 0 0 0 0 0 0 0 0 0 0 0 0
116 182 252 379 130 123 47 14 50 27 56 57 48 55 16 23 46 26 31 52 49 89 32 6 0 0 0 1 0 0 0 0 0 0 0 0 0 0
312 404 386 235 241 120 24 0 0 0 18 6 6 6 1 67 70 39 47 32 37 37 12 0 6 7 7 0 0 0 0 0 0 0 0 0 0 0
518 397 252 116 186 233 151 39 0 0 0 28 81 55 52 44 57 26 45 26 1 0 1 7 20 15 7 3 0 0 0 0 0 0 0 0 0 0
591 390 178 139 159 187 188 92 68 79 78 53 28 19 35 24 4 0 1 0 2 10 25 30 32 9 7 3 0 0 0 0 0 0 0 0 0 0
241 139 64 57 140 9 2 20 25 9 1 0 0 0 0 0 0 0 0 8 9 6 0 28 23 27 0 0 0 1 0 0 0 0 0 0 0 0
49 130 73 74 0 0 0 0 0 0 8 0 0 2 0 1 1 3 4 6 16 17 9 35 22 0 1 2 2 3 1 0 0 0 0 0 0 0
144 242 166 0 0 0 0 0 0 0 0 0 0 0 0 1 16 37 30 20 8 1 0 2 5 3 3 2 1 4 7 0 0 0 0 0 0 0
386 216 1 0 0 0 0 0 0 0 0 0 0 0 0 1 3 1 0 0 0 0 2 25 20 4 3 2 6 3 4 0 11 13 13 0 0 0
242 15 0 0 0 0 0 0 0 0 0 0 0 0 0 0 0 0 0 0 0 5 19 41 5 4 2 6 4 5 4 0 0 14 36 5 0 0
0 0 0 0 0 0 0 0 0 0 0 0 0 0 0 0 0 0 0 0 0 12 36 36 8 6 4 3 5 7 5 3 2 101 74 11 2 0
0 0 0 0 0 3 5 1 0 0 0 0 0 0 0 0 0 0 0 0 10 6 0 0 2 1 0 2 1 5 2 3 10 5 1 1 4 2
0 0 0 0 0 1 2 0 0 0 0 0 0 0 0 0 0 0 0 0 4 16 0 0 47 1 0 0 0 3 3 4 1 3 3 2 2 4
0 0 0 0 0 0 0 0 0 0 0 0 0 0 0 0 0 0 0 0 0 0 0 0 43 3 2 2 1 10 3 3 4 0 62 48 59 5
0 0 0 0 0 0 0 0 0 0 0 0 0 0 0 0 0 0 0 0 0 5 0 1 0 4 2 2 3 6 5 2 2 4 3 117 206 176
0 0 0 0 0 0 0 0 0 0 0 0 0 0 0 0 0 0 0 0 0 3 0 0 0 0 2 0 1 2 2 0 0 2 3 4 30 47
0 0 0 0 0 0 0 0 0 0 0 0 0 0 0 0 0 0 0 0 0 0 0 0 0 0 3 2 2 3 3 2 0 2 2 1 1 1
0 0 0 0 0 0 0 0 0 0 0 0 0 0 0 0 0 0 0 0 0 0 0 10 0 0 0 2 1 3 2 2 2 1 3 1 0 0

GFSNE_con_mlcape_009.txt.gz
CAPE
3 6 1 5 8 12 26 41 39 23 32 47 40 76 42 34 39 6 0 1 0 0 0 0 0 0 0 0 0 0 0 0 0 0 0 0 0 54
0 0 2 0 2 15 20 30 28 20 16 27 37 48 44 33 67 66 31 8 0 0 0 0 0 0 0 0 0 0 0 0 0 0 0 0 0 0
0 0 0 9 0 5 10 16 3 15 7 0 2 15 62 35 31 52 75 79 51 20 12 0 0 0 0 0 0 0 0 0 0 0 0 0 0 0
0 0 6 24 140 297 1 31 29 1 9 9 1 2 12 40 74 69 34 38 56 29 2 0 0 0 0 0 0 0 0 0 0 0 0 0 0 0
4 11 49 157 157 83 134 54 27 34 40 12 24 32 17 16 16 92 62 79 71 19 12 8 7 0 0 0 0 0 0 0 0 0 0 0 0 0
101 78 144 209 236 256 241 246 173 85 51 51 42 46 44 31 97 45 31 19 17 45 31 9 21 15 0 0 0 0 0 0 0 0 0 0 0 0
88 92 194 287 279 361 315 170 194 87 80 76 36 21 30 57 54 63 69 56 36 27 12 36 34 27 1 0 0 2 0 0 0 0 0 0 0 0
125 251 448 514 236 124 126 144 91 46 30 40 18 0 33 41 23 20 33 29 0 7 22 0 0 0 0 18 35 13 0 0 0 0 0 0 0 0
366 492 592 541 166 209 258 157 83 38 33 42 63 91 56 100 34 5 4 9 0 0 0 0 0 17 80 31 37 1 0 0 0 0 0 0 0 0
285 587 750 736 664 269 101 58 179 317 217 118 62 102 47 9 17 3 0 0 0 2 26 15 45 64 119 148 13 0 0 0 0 0 0 0 0 0
619 731 930 907 295 78 56 35 71 98 145 19 0 0 0 0 0 0 0 2 6 17 2 6 32 36 39 3 0 0 0 0 0 0 0 0 0 0
612 1022 475 78 54 40 48 16 75 135 70 33 67 0 0 1 0 0 18 32 28 24 20 36 5 0 7 0 2 0 0 0 1 0 0 0 0 0
721 554 365 68 4 0 0 0 19 0 26 0 0 0 24 14 5 31 57 35 21 13 3 0 0 0 48 21 1 0 3 3 4 2 0 0 0 0
435 331 413 4 0 0 0 0 0 0 0 0 1 22 11 0 0 1 0 0 0 3 0 0 1 15 33 2 2 0 0 0 2 3 4 1 0 0
158 11 7 0 0 0 0 0 0 0 0 8 18 0 0 0 0 0 7 10 13 1 2 51 24 6 21 8 3 3 9 0 1 4 4 3 8 0
0 0 0 0 0 0 0 0 0 0 8 0 0 0 0 0 0 0 0 0 0 0 19 16 12 9 34 10 4 2 6 3 3 5 4 89 44 0
54 15 1 0 4 10 12 10 7 8 3 0 0 0 0 0 0 0 0 0 0 0 4 1 1 7 54 5 1 0 9 4 3 3 5 84 85 1
0 0 0 2 16 20 22 25 17 2 0 0 0 0 0 0 0 0 0 0 0 1 12 16 0 10 0 0 0 3 15 7 2 3 4 8 10 10
0 0 0 2 5 8 6 1 0 0 0 0 0 0 0 0 0 0 0 0 0 0 6 6 0 2 1 0 1 6 8 7 3 3 3 5 9 8
0 0 0 3 1 0 0 0 0 0 0 0 0 0 0 0 0 0 0 0 0 0 11 2 0 0 1 4 15 4 5 4 2 3 3 5 1 7
2 0 0 0 0 0 0 0 0 0 0 0 0 0 0 0 0 0 0 0 0 1 3 11 0 0 0 0 0 1 0 1 2 3 3 5 3 57
0 0 0 0 0 0 0 0 0 0 0 0 0 0 0 0 0 0 0 0 0 0 0 23 1 0 0 1 0 2 1 0 1 1 0 1 2 3
0 0 0 0 0 0 0 0 0 0 0 0 0 0 0 0 0 0 0 0 0 0 0 0 25 2 0 0 1 1 2 0 1 0 1 0 3 1

GFSNE_con_mlcape_012.txt.gz
CAPE
88 15 0 0 8 7 24 13 14 6 12 10 25 94 46 29 17 1 0 0 0 0 0 0 0 0 0 0 0 0 0 0 0 0 0 0 0 0
25 12 45 26 0 6 30 15 27 45 12 13 8 12 51 26 31 27 44 12 4 0 0 0 0 0 0 0 0 0 0 0 0 0 0 0 0 0
15 4 1 18 0 7 76 11 0 2 10 0 0 0 1 4 0 28 54 41 39 42 34 16 0 0 0 0 0 0 0 0 0 0 0 0 0 0
62 23 0 0 20 30 77 4 9 70 18 0 0 2 33 47 32 6 27 53 35 26 24 9 7 2 3 0 0 0 0 0 0 0 0 0 0 0
6 9 0 14 153 108 240 100 88 62 179 29 10 6 5 1 0 0 0 15 15 24 4 1 1 3 4 1 0 0 0 0 0 0 0 0 0 0
147 63 47 154 190 148 88 150 190 142 90 34 58 70 35 8 17 21 1 6 16 20 18 10 0 0 7 2 0 0 0 0 0 0 0 0 0 0
473 98 52 296 404 366 357 249 353 157 35 12 2 11 24 11 0 20 21 16 22 21 25 2 0 0 0 0 0 0 0 0 0 0 0 0 0 0
383 406 120 161 125 206 103 136 184 86 36 19 14 2 36 44 85 25 20 0 0 0 11 0 0 0 0 0 0 0 0 3 1 0 0 0 0 0
774 430 250 282 579 619 187 127 114 97 59 15 0 11 60 97 57 2 6 17 0 0 0 0 0 1 3 15 28 23 32 0 0 0 0 0 0 0
405 434 291 312 681 571 374 387 233 68 52 58 56 87 113 76 29 0 0 0 0 0 0 2 4 0 0 0 28 18 0 0 0 0 0 0 0 0
247 262 450 605 722 483 431 332 49 116 308 126 106 102 79 0 3 0 0 0 0 0 5 0 1 10 11 1 0 0 0 0 0 0 0 0 0 0
278 231 297 439 482 295 167 90 115 99 174 250 129 6 4 0 0 6 7 8 7 15 13 24 18 0 0 0 0 0 0 0 0 0 0 0 0 0
224 464 594 412 284 81 25 105 89 0 0 0 0 0 0 7 59 121 68 23 24 7 0 2 0 0 0 2 0 0 0 0 0 0 0 0 0 0
492 478 435 158 67 17 0 0 0 0 0 0 0 0 14 1 0 0 0 0 0 0 4 22 20 31 26 3 0 0 0 0 5 8 4 0 0 0
276 99 2 0 0 0 0 0 0 0 0 0 0 2 0 0 0 0 0 0 2 2 2 1 40 24 34 11 37 25 4 0 0 12 14 3 4 5
0 0 0 0 0 0 0 0 0 0 0 4 0 0 0 0 0 0 0 0 0 0 0 11 26 29 16 27 19 0 0 14 12 18 8 2 2 3
0 0 0 0 0 0 0 1 6 8 15 25 0 0 0 0 0 0 0 0 0 0 0 12 21 15 16 14 0 0 10 7 10 7 3 2 3 2
33 147 59 94 95 62 35 38 29 26 21 0 0 0 0 0 0 0 0 0 0 0 0 13 15 2 0 0 0 0 3 9 7 6 3 5 2 0
0 0 0 12 4 0 0 0 0 0 0 0 0 0 0 0 0 0 0 0 0 0 0 1 9 24 3 0 0 8 10 8 9 5 4 4 3 3
0 0 0 0 0 0 0 0 0 0 0 0 0 0 0 0 0 0 0 0 0 0 0 8 26 30 5 2 0 0 2 6 9 7 4 2 1 0
3 17 0 0 0 0 0 0 0 0 0 0 0 0 0 0 0 0 0 0 0 0 0 0 5 0 1 0 0 0 0 0 5 6 7 2 3 1
0 0 0 0 0 0 0 0 0 0 0 0 0 0 0 0 0 0 0 0 0 0 0 0 1 10 0 0 0 1 0 0 0 6 4 2 4 3
1 0 0 0 0 0 0 0 0 0 0 0 0 0 0 0 0 0 0 0 0 0 0 0 0 33 0 0 0 0 0 0 2 2 1 0 0 0

GFSNE_con_mlcape_015.txt.gz
CAPE
0 0 0 0 0 0 0 0 0 0 0 0 0 16 21 3 0 1 0 0 0 0 0 0 0 0 0 0 0 0 0 0 0 0 0 0 0 0
35 2 0 0 1 0 0 0 0 0 0 0 0 0 0 2 11 9 1 4 0 0 0 0 0 0 0 0 0 0 0 0 0 0 0 0 0 0
18 0 8 1 5 0 4 0 0 0 0 0 0 0 0 0 0 0 0 0 8 9 0 0 0 0 0 0 1 0 0 0 0 0 0 0 0 0
0 0 0 13 8 0 4 3 32 34 3 0 0 0 0 0 2 0 0 0 5 0 0 0 0 0 0 0 0 0 0 0 0 0 0 0 0 0
19 0 3 0 0 1 40 38 63 62 47 7 0 6 2 16 10 0 0 0 20 44 22 16 2 1 0 0 0 0 0 0 0 0 0 0 0 0
121 105 101 6 0 61 121 123 103 75 53 30 20 7 6 22 15 12 0 0 0 0 0 0 0 0 0 0 0 0 0 0 0 0 0 0 0 0
178 64 25 16 2 59 157 99 95 103 106 87 15 0 0 0 4 3 0 0 0 0 0 0 0 0 0 0 0 0 0 0 0 0 0 0 0 0
103 156 236 128 127 279 380 285 244 125 132 62 24 0 0 0 0 3 0 0 0 0 0 0 0 0 0 0 0 0 0 0 0 0 0 0 0 0
243 267 553 348 128 146 167 216 201 145 159 59 13 0 0 0 20 27 0 0 0 0 0 0 0 0 0 0 0 0 0 0 0 0 0 0 0 0
365 490 306 285 179 288 398 394 219 146 163 82 3 2 0 52 71 59 6 0 0 0 0 0 0 0 0 0 0 0 0 0 0 0 0 0 0 0
112 215 381 367 302 248 184 156 191 165 165 139 187 192 120 106 133 39 2 7 0 0 0 0 0 0 0 0 0 0 0 0 0 0 0 0 0 0
3 35 264 238 238 132 42 73 61 88 108 94 83 16 0 0 0 0 12 3 3 0 0 0 0 0 0 0 0 0 0 0 0 0 0 0 0 0
92 76 120 74 148 82 75 102 121 36 18 3 0 0 0 0 0 6 17 2 0 0 0 0 0 0 0 0 0 0 0 0 0 0 0 0 0 0
224 253 191 255 112 75 70 4 0 0 0 0 0 0 0 0 0 0 0 0 0 0 0 0 0 0 0 5 0 0 0 0 0 0 0 1 8 6
192 149 6 18 16 11 0 0 0 0 0 0 0 0 0 0 0 0 0 0 0 0 0 0 0 0 37 23 6 0 0 0 0 0 0 8 14 16
0 1 2 0 0 0 0 0 0 0 0 0 0 0 0 0 0 0 0 0 0 0 0 0 0 55 22 8 1 0 0 0 0 0 1 4 13 11
0 0 0 0 0 0 0 0 0 0 0 1 3 0 0 0 0 0 0 0 0 0 0 0 0 21 29 25 1 0 0 0 0 0 1 7 8 10
0 0 0 0 0 0 0 2 0 5 10 10 0 0 0 0 0 0 0 0 0 0 0 0 0 0 0 0 6 0 0 0 0 5 8 11 6 4
0 27 1 0 0 0 0 0 0 4 1 0 0 0 0 0 0 0 0 0 0 0 0 0 0 0 4 8 0 1 3 0 6 3 6 12 6 1
0 0 0 0 0 0 0 0 0 0 0 0 0 0 0 0 0 0 0 0 0 0 0 0 0 0 10 7 0 0 0 0 2 6 8 4 2 3
0 0 0 0 0 0 0 0 0 0 0 0 0 0 0 0 0 0 0 0 0 0 0 0 0 0 0 0 0 0 0 0 0 7 10 3 3 3
0 0 0 0 0 0 0 0 0 0 0 0 0 0 0 0 0 0 0 0 0 0 0 0 0 0 0 0 0 0 0 0 0 1 9 5 4 3
0 0 0 0 0 0 0 0 0 0 0 0 0 0 0 0 0 0 0 0 0 0 0 0 0 0 0 0 0 0 0 0 1 2 2 3 1 2

GFSNE_con_mlcape_018.txt.gz
CAPE
0 0 0 0 0 0 0 0 0 0 0 0 0 0 0 0 0 0 0 0 0 0 0 0 0 0 0 0 0 0 0 0 0 0 0 0 0 0
0 0 0 0 0 0 0 0 0 0 0 0 0 0 0 0 0 0 0 0 0 0 0 0 0 0 6 14 4 0 0 0 0 0 0 0 0 0
7 0 0 0 0 0 0 0 0 0 0 1 0 0 0 0 0 0 0 0 0 0 0 18 16 0 0 14 10 4 0 0 0 0 0 0 0 0
0 14 5 0 0 1 4 0 6 0 4 4 0 0 0 0 3 3 19 1 0 0 0 11 24 1 0 0 0 0 0 0 0 0 0 0 0 0
0 0 0 0 0 15 10 0 22 45 37 30 19 13 6 5 18 4 0 3 1 0 0 0 0 0 1 0 0 0 0 0 0 0 0 0 0 0
0 0 0 0 9 1 2 0 34 74 73 76 42 27 14 8 11 10 0 0 0 3 0 0 0 0 0 0 0 0 0 0 0 0 0 0 0 0
38 0 34 60 29 19 8 0 72 99 91 83 28 28 16 7 0 0 0 0 0 0 0 0 0 0 0 0 0 0 0 0 0 0 0 0 0 0
77 0 2 69 139 83 9 8 49 143 79 31 17 22 29 7 0 0 0 0 0 0 0 0 0 0 0 0 0 0 0 0 0 0 0 0 0 0
146 69 11 197 206 209 169 147 175 114 117 0 17 22 14 3 0 0 0 0 0 0 0 0 0 0 0 0 0 0 0 0 0 0 0 0 0 0
350 182 136 207 253 237 115 102 123 62 3 36 13 55 31 20 10 26 30 0 0 0 0 0 0 0 0 0 0 0 0 0 0 0 0 0 0 0
314 327 412 383 342 158 100 208 117 49 88 144 83 119 120 82 25 2 11 0 0 0 0 0 0 0 0 0 0 0 0 0 0 0 0 0 0 0
201 233 142 100 190 21 133 145 93 9 24 41 4 0 1 0 0 0 0 0 0 9 0 0 0 0 0 0 0 0 0 0 0 0 0 0 0 0
0 0 14 0 88 49 74 38 51 32 34 0 0 0 0 0 0 0 0 0 0 0 0 0 0 0 0 0 0 0 0 0 0 0 0 0 0 0
201 180 70 34 28 0 28 45 39 14 0 0 0 0 0 0 0 0 0 0 0 0 0 0 0 0 0 0 0 0 0 0 0 0 0 0 0 0
306 145 32 0 0 0 0 19 0 0 0 0 0 0 0 0 0 0 0 0 0 0 0 0 0 0 0 0 0 0 3 0 0 0 0 0 0 0
4 0 0 0 0 0 0 0 0 0 0 0 0 0 0 0 0 0 0 0 0 0 0 0 0 0 0 0 0 0 2 2 0 0 0 0 1 3
0 0 0 0 0 0 0 0 0 0 0 0 0 0 0 0 0 0 0 0 0 0 0 0 0 0 0 0 0 0 0 0 0 0 1 2 2 1
0 0 0 0 0 0 0 0 0 0 0 0 0 0 0 0 0 0 0 0 0 0 0 0 0 0 0 0 0 0 0 0 0 0 2 4 2 6
0 0 0 0 0 0 0 0 0 0 0 0 0 0 0 0 0 0 0 0 0 0 0 0 0 0 0 0 0 0 0 0 0 0 1 6 10 4
0 0 0 0 0 0 0 0 0 0 0 0 0 0 0 0 0 0 0 0 0 0 0 0 0 0 0 0 0 0 0 0 0 1 3 4 9 10
0 0 0 0 0 0 0 0 0 0 0 0 0 0 0 0 0 0 0 0 0 0 0 0 0 0 0 0 0 0 0 0 0 1 2 6 5 5
0 0 0 0 0 0 0 0 0 0 0 0 0 0 0 0 0 0 0 0 0 0 0 0 0 0 0 0 0 0 0 0 0 0 3 7 6 6
0 0 0 0 0 0 0 0 0 0 0 0 0 0 0 0 0 0 0 0 0 0 0 0 0 0 0 0 0 0 0 0 0 0 0 6 5 7

GFSNE_con_mlcape_021.txt.gz
CAPE
0 0 0 0 0 0 0 0 0 0 0 0 0 0 0 0 0 0 0 0 0 0 0 0 0 0 5 7 7 8 2 0 0 0 0 0 0 0
0 0 0 0 0 0 0 0 0 0 0 0 0 0 0 0 0 0 0 0 0 0 0 0 0 0 13 19 18 14 16 17 8 0 0 0 0 0
0 0 0 0 0 0 0 0 0 0 0 0 0 0 0 0 0 0 0 0 0 0 0 0 0 0 0 12 18 14 0 0 1 2 6 0 0 0
0 0 0 0 0 0 0 0 2 0 0 0 0 0 5 5 0 0 0 0 0 0 0 0 0 0 0 0 0 0 0 0 0 0 0 0 4 0
0 0 0 0 0 0 0 5 7 3 0 0 4 2 12 10 10 5 0 0 0 0 0 0 0 0 0 0 0 0 0 0 0 0 0 0 0 0
18 4 0 0 0 0 2 10 5 3 2 23 31 29 18 17 17 12 6 0 0 0 0 0 0 0 0 0 0 0 0 0 0 0 0 0 0 0
38 31 14 0 0 0 1 8 0 1 6 37 32 19 11 2 9 3 0 0 0 0 0 0 0 0 0 0 0 0 0 0 0 0 0 0 0 0
296 153 46 0 0 5 12 20 26 8 0 25 46 23 0 0 0 0 0 0 0 0 0 0 0 0 0 0 0 0 0 0 0 0 0 0 0 0
366 311 156 53 0 1 43 39 16 3 6 27 5 0 0 7 4 0 0 0 1 3 0 0 0 0 0 0 0 0 0 0 0 0 0 0 0 0
459 423 376 254 99 16 73 117 39 6 44 1 0 2 9 4 11 4 6 0 0 0 0 0 0 0 0 0 0 0 0 0 0 0 0 0 0 0
560 587 363 319 226 111 283 180 21 36 37 29 1 33 67 17 1 0 0 0 0 0 0 0 0 0 0 0 0 0 0 0 0 0 0 0 0 0
912 484 368 350 308 225 323 176 10 23 35 2 0 0 0 0 0 0 0 0 0 0 0 0 0 0 0 0 0 0 0 0 0 0 0 0 0 0
642 298 119 85 3 0 4 47 19 2 2 4 0 0 0 0 0 0 0 0 0 0 0 0 0 0 0 0 0 0 0 0 0 0 0 0 0 0
89 2 1 20 0 0 0 2 0 0 0 0 0 0 0 0 0 0 0 0 0 0 0 0 0 0 0 0 0 0 0 0 0 0 0 0 0 0
6 14 20 0 0 0 0 0 0 0 0 0 0 0 0 0 0 0 0 0 0 0 0 0 0 0 0 0 0 0 0 0 0 0 0 0 0 0
1 0 0 0 0 0 0 0 0 0 0 0 0 0 0 0 0 0 0 0 0 0 0 0 0 0 0 0 0 0 0 0 0 0 0 0 0 0
0 0 0 0 0 0 0 0 0 0 0 0 0 0 0 0 0 0 0 0 0 0 0 0 0 0 0 0 0 0 0 0 0 0 0 0 0 0
0 3 0 0 0 0 0 0 0 0 0 0 0 0 0 0 0 0 0 0 0 0 0 0 0 0 0 0 0 0 0 0 0 0 0 0 0 0
0 0 0 0 0 0 0 0 0 0 0 0 0 0 0 0 0 0 0 0 0 0 0 0 0 0 0 0 0 0 0 0 0 0 0 0 1 0
0 0 0 0 0 0 0 0 0 0 0 0 0 0 0 0 0 0 0 0 0 0 0 0 0 0 0 0 0 0 0 0 0 0 0 0 0 4
0 0 0 0 0 0 0 0 0 0 0 0 0 0 0 0 0 0 0 0 0 0 0 0 0 0 0 0 0 0 0 0 0 0 0 2 3 5
0 0 0 0 0 0 0 0 0 0 0 0 0 0 0 0 0 0 0 0 0 0 0 0 0 0 0 0 0 0 0 0 0 0 0 1 6 5
0 0 0 0 0 0 0 0 0 0 0 0 0 0 0 0 0 0 0 0 0 0 0 0 0 0 0 0 0 0 0 0 0 0 0 0 3 7

GFSNE_con_mlcape_024.txt.gz
CAPE
0 0 0 0 0 0 0 0 0 0 0 0 0 0 0 0 0 0 0 0 0 0 0 0 0 0 1 7 4 0 0 0 0 0 0 0 0 0
0 0 0 0 0 0 0 0 0 0 0 0 0 0 0 0 0 0 0 0 0 2 0 0 1 2 0 18 28 28 23 4 0 0 0 0 0 0
0 0 0 0 0 0 0 0 0 0 0 0 0 0 0 0 0 0 0 0 0 0 0 0 0 0 0 0 0 0 0 0 0 0 0 0 0 0
0 0 0 0 0 0 0 0 0 0 0 0 0 0 0 0 0 0 0 0 0 0 0 0 0 0 0 0 0 0 0 0 0 0 0 0 0 0
1 0 0 0 0 0 0 0 0 0 0 0 0 0 0 0 0 0 0 0 0 0 0 0 0 0 0 0 0 0 0 0 0 0 0 0 0 0
93 5 12 0 0 0 0 0 0 5 2 0 0 0 0 4 0 2 3 0 0 0 0 0 0 0 0 0 0 0 0 0 0 0 0 0 0 0
218 80 53 10 2 0 0 0 0 0 1 0 1 0 8 0 0 0 0 0 0 0 0 0 0 0 0 0 0 0 0 0 0 0 0 0 0 0
447 273 158 62 2 0 0 0 0 0 1 0 0 10 16 0 0 1 0 0 2 0 0 5 0 0 0 0 0 0 0 0 0 0 0 0 0 0
590 430 331 229 113 42 1 0 0 0 12 29 11 8 2 0 1 0 0 2 5 3 0 0 0 0 0 0 0 0 0 0 0 0 0 0 0 0
741 619 644 564 343 198 115 8 0 3 19 16 22 3 0 0 0 0 0 0 1 8 0 0 0 0 0 0 0 0 0 0 0 0 0 0 0 0
864 696 726 602 357 197 141 58 0 13 12 13 13 0 1 0 5 0 0 0 0 0 0 0 0 0 0 0 0 0 0 0 0 0 0 0 0 0
880 791 681 606 369 124 175 112 205 99 12 6 1 0 0 0 0 0 0 0 0 0 0 0 0 0 0 0 0 0 0 0 0 0 0 0 0 0
1201 910 668 443 240 99 116 123 19 7 0 0 0 0 0 0 0 0 0 0 0 0 0 0 0 0 0 0 0 0 0 0 0 0 0 0 0 0
1367 859 566 159 32 0 0 0 0 3 0 0 0 0 0 0 0 0 0 0 0 0 0 0 0 0 0 0 0 0 0 0 0 0 0 0 0 0
781 360 4 0 0 0 0 0 0 0 0 0 0 0 0 0 0 0 0 0 0 0 0 0 0 0 0 0 0 0 0 0 0 0 0 0 0 0
0 0 2 0 0 0 0 0 0 0 0 0 0 0 0 0 0 0 0 0 0 0 0 0 0 0 0 0 0 0 0 0 0 0 0 0 0 0
0 0 14 0 0 0 0 0 0 0 0 0 0 0 0 0 0 0 0 0 0 0 0 0 0 0 0 0 0 0 0 0 0 0 0 0 0 0
57 64 14 0 0 0 0 0 0 0 0 0 0 0 0 0 0 0 0 0 0 0 0 0 0 0 0 0 0 0 0 0 0 0 0 0 0 0
92 38 17 0 0 0 0 0 0 0 0 0 0 0 0 0 0 0 0 0 0 0 0 0 0 0 0 0 0 0 0 0 0 0 0 0 0 0
47 28 1 0 0 0 0 0 0 0 0 0 0 0 0 0 0 0 0 0 0 0 0 0 0 0 0 0 0 0 0 0 0 0 0 0 0 0
0 0 0 0 0 0 0 0 0 0 0 0 0 0 0 0 0 0 0 0 0 0 0 0 0 0 0 0 0 0 0 0 0 0 0 0 0 3
0 0 0 0 0 0 0 0 0 0 0 0 0 0 0 0 0 0 0 0 0 0 0 0 0 0 0 0 0 0 0 0 0 0 0 0 5 6
0 0 0 0 0 0 0 0 0 0 0 0 0 0 0 0 0 0 0 0 0 0 0 0 0 0 0 0 0 0 0 0 0 0 0 0 0 0

GFSNE_con_mlcape_027.txt.gz
CAPE
46 21 0 33 20 0 0 0 0 0 0 0 0 0 3 21 0 0 38 30 0 0 0 0 0 0 0 0 0 0 0 0 0 0 0 0 0 0
70 56 37 17 12 12 0 0 0 0 0 0 0 0 4 18 1 17 15 0 0 0 0 0 0 0 0 0 4 8 2 0 0 0 0 0 0 0
126 47 48 22 2 3 0 0 0 0 0 0 0 9 1 0 1 36 30 58 41 0 0 0 0 0 0 0 0 0 0 0 0 0 0 0 0 0
353 59 22 11 0 0 0 0 0 0 0 0 0 8 5 14 63 58 66 16 59 3 0 0 0 0 0 0 0 0 0 0 0 0 0 0 0 0
550 249 46 34 0 0 0 0 0 0 0 0 0 8 22 30 46 71 106 77 66 11 1 0 0 0 0 0 0 0 0 0 0 0 0 0 0 0
780 508 287 107 28 0 0 0 2 0 2 0 0 0 21 75 91 77 52 21 8 12 16 1 0 0 0 0 0 0 0 0 0 0 0 0 0 0
993 784 531 323 127 48 2 41 62 22 5 11 0 0 1 27 12 51 36 21 15 18 26 68 87 37 34 0 0 0 0 0 0 0 0 0 0 0
1302 1143 789 345 132 21 1 5 90 83 28 40 36 45 119 3 15 16 22 35 12 7 29 138 309 264 241 156 10 0 0 0 0 0 0 0 0 0
1480 1444 1128 626 321 209 35 0 0 0 8 233 206 267 113 5 16 22 31 20 83 208 172 187 310 244 36 2 0 0 0 0 0 0 0 0 0 0
1566 1550 1320 1001 715 517 530 250 53 5 0 1 268 427 36 73 10 49 100 208 230 207 300 78 0 0 0 0 0 0 0 0 0 0 0 0 0 0
1664 1554 1292 1160 856 432 608 538 239 197 89 2 26 5 5 1 5 97 52 46 7 10 3 0 0 0 0 0 0 0 0 0 0 0 0 0 0 0
1659 1446 907 1082 824 432 572 661 644 468 244 18 0 0 0 0 0 19 1 0 0 0 0 0 0 0 0 0 0 0 0 0 0 0 0 0 0 0
1505 1159 1258 647 612 248 304 918 720 638 229 81 0 2 0 0 0 0 0 0 0 0 1 0 0 0 0 0 0 0 0 0 0 0 0 0 0 0
1150 1207 1421 724 384 272 183 566 297 129 84 25 0 0 0 0 0 0 0 0 0 0 0 0 0 0 0 0 0 0 0 0 0 0 0 0 0 0
1113 1178 1095 545 302 41 42 49 0 40 3 0 0 0 0 0 0 0 0 0 0 0 0 0 0 0 0 0 0 0 0 0 0 0 4 10 1 0
673 252 158 57 5 1 0 0 82 55 0 0 0 0 0 0 0 0 0 0 0 0 0 0 0 0 0 0 0 0 0 0 0 8 14 1 0 0
11 19 5 0 0 0 1 1 10 0 0 0 0 0 0 0 0 0 0 0 0 0 0 0 0 0 0 0 0 0 0 0 1 1 1 0 0 0
16 0 1 0 24 2 0 0 0 0 0 0 0 0 0 0 0 0 0 0 0 0 0 0 0 0 0 0 0 0 0 0 0 0 0 0 0 0
1 4 87 15 17 0 0 0 0 0 0 0 0 0 0 0 0 0 0 0 0 0 0 0 0 0 0 0 0 0 0 0 0 0 0 0 0 0
14 16 0 2 0 0 0 0 0 0 0 0 0 0 0 0 0 0 0 0 0 0 0 0 0 0 0 0 0 0 0 0 0 0 0 0 0 0
52 96 46 7 0 0 0 0 0 0 0 0 0 0 0 0 0 0 0 0 0 0 0 0 0 0 0 0 0 0 0 0 0 0 0 0 0 0
30 68 26 1 0 0 0 0 0 0 0 0 0 0 0 0 0 0 0 0 0 0 0 0 0 0 0 0 0 0 0 0 0 0 0 0 0 2
40 41 2 0 0 0 0 0 0 0 0 0 0 0 0 0 0 0 0 0 0 0 0 0 0 0 0 0 0 0 0 0 0 0 0 0 0 0

GFSNE_con_mlcape_030.txt.gz
CAPE
275 291 37 4 39 4 0 0 0 0 4 2 0 0 0 0 0 62 97 119 35 0 0 0 0 0 0 0 0 0 0 0 0 0 0 0 0 0
318 82 175 0 21 22 0 0 0 0 0 3 0 1 0 0 12 35 78 55 0 0 0 0 0 0 0 0 0 0 0 0 0 0 0 0 0 0
795 253 283 141 9 0 6 2 0 0 0 1 0 13 123 88 0 0 15 8 10 0 0 0 0 0 0 0 0 0 0 0 0 0 0 0 0 0
1402 949 382 242 282 49 15 27 0 0 0 0 0 36 102 123 112 219 54 0 2 4 0 0 0 0 0 0 0 0 0 0 0 0 0 0 0 0
1705 1445 936 300 293 38 59 0 0 0 12 0 0 25 10 100 181 282 201 166 64 1 0 0 0 0 0 0 0 0 0 0 0 0 0 0 0 0
2018 1778 1356 901 479 425 158 94 7 0 1 0 0 0 24 36 19 0 172 221 46 45 7 0 0 0 0 0 0 0 0 0 0 0 0 0 0 0
2104 2068 1766 1404 842 725 532 269 140 170 0 11 31 8 12 16 129 28 0 0 114 119 83 61 21 43 101 0 1 6 0 0 0 0 0 0 0 0
2242 2193 1994 1323 919 456 324 223 334 344 226 23 68 44 105 197 206 55 2 16 16 158 162 147 185 257 258 215 105 3 0 0 0 0 0 0 0 0
2322 2398 2206 1931 1289 1094 274 85 42 115 187 297 201 169 155 366 431 291 211 125 109 154 420 235 145 165 144 52 0 0 0 0 0 0 0 0 0 0
2335 2493 2513 2310 1933 1460 1273 474 197 204 103 54 185 403 497 576 635 301 355 197 190 209 272 159 51 3 1 0 0 0 0 0 0 0 0 0 0 0
2353 2436 2565 2574 2354 1275 1409 1181 971 769 333 75 49 159 354 204 170 190 63 68 69 28 46 4 0 1 0 0 0 0 0 0 0 0 0 0 0 0
2436 2561 1983 2352 2088 1265 1213 1370 1339 1327 818 203 46 33 1 3 0 13 36 25 18 0 9 0 0 0 0 0 0 0 0 0 0 0 0 0 0 0
1704 2055 2172 1638 1280 1008 754 1066 1183 1428 746 647 243 270 272 161 15 1 15 0 0 0 1 0 0 0 0 0 0 0 0 0 0 0 0 0 0 0
2019 1687 2025 1301 781 545 405 689 682 773 934 707 440 272 192 104 39 2 0 0 0 0 0 0 0 0 0 0 0 0 0 0 0 0 0 0 0 0
1986 1978 1602 795 466 227 255 255 403 637 669 449 280 259 89 35 2 0 0 0 0 0 0 0 0 0 0 0 0 0 0 0 0 0 0 0 5 3
1044 853 477 326 92 53 37 104 284 303 319 293 213 71 16 1 0 0 0 0 0 0 0 0 0 0 0 0 0 0 0 0 0 0 1 0 0 0
183 149 13 26 2 0 38 102 162 173 191 159 83 18 2 0 0 0 0 0 0 0 0 0 0 0 0 0 0 0 0 0 0 0 0 0 0 0
204 105 24 5 9 6 48 47 121 108 128 76 29 8 1 0 0 0 0 0 0 0 0 0 0 0 0 0 0 0 0 0 0 0 0 0 0 0
317 179 52 0 5 0 0 57 166 64 6 9 3 4 0 0 0 1 0 0 0 0 0 0 0 0 0 0 0 0 0 0 0 0 0 0 0 0
71 13 0 0 0 0 4 1 66 7 1 0 0 0 0 0 0 0 0 0 0 0 0 0 0 0 0 0 0 0 0 0 0 0 0 0 0 0
92 54 7 15 26 12 18 21 1 0 0 0 0 0 0 0 0 0 0 0 0 0 0 0 0 0 0 0 0 0 0 0 0 0 0 0 0 0
108 132 94 14 12 37 21 1 0 0 0 0 0 0 0 0 0 0 0 0 0 0 0 0 0 0 0 0 0 0 0 0 0 0 0 0 0 0
159 187 88 40 39 28 1 0 0 0 0 0 0 0 0 0 0 0 0 0 0 0 0 0 0 0 0 0 0 0 0 0 0 0 0 0 0 0

GFSNE_con_mlcape_036.txt.gz
CAPE
1398 837 83 191 95 59 18 0 0 7 53 6 0 0 22 0 0 0 2 0 0 0 0 0 0 0 0 0 0 0 0 0 0 0 0 0 0 52
1623 1196 240 47 35 93 34 16 0 0 0 57 9 35 0 21 0 4 9 27 0 0 0 0 0 0 0 0 0 0 0 0 0 0 0 0 0 0
1626 1063 787 175 100 124 38 37 42 10 0 0 115 108 20 0 0 0 0 14 9 0 0 0 0 0 0 0 0 0 0 0 0 0 0 0 0 0
1873 1136 1248 764 167 252 543 50 27 74 71 70 51 195 118 57 31 140 0 1 66 103 2 0 0 0 0 0 0 0 0 0 0 0 0 0 0 0
2584 1953 1344 1166 690 98 169 210 144 155 262 95 112 182 365 494 220 119 196 152 88 23 0 0 2 0 0 0 0 0 0 0 0 0 0 0 0 0
2856 2658 2253 1673 1075 796 177 47 236 317 87 116 169 93 92 392 377 277 274 308 216 188 3 0 1 0 0 0 0 0 0 0 0 0 0 0 0 0
2344 2912 2695 2495 1903 1344 1024 627 224 155 451 183 109 165 150 181 277 219 120 79 205 240 67 7 9 8 2 7 6 17 8 0 0 0 0 0 0 0
2803 2685 2891 2627 2400 1830 1302 968 729 208 76 76 182 270 265 239 378 187 121 115 75 78 11 26 184 197 121 184 108 16 2 0 0 0 0 0 0 0
2874 2850 2896 2868 2563 2230 1488 1115 748 756 463 294 378 597 664 566 497 312 243 252 192 140 54 34 114 58 148 1 0 0 0 0 0 0 0 0 0 0
2862 2882 2898 2835 2837 2564 1996 1303 1058 850 751 702 861 850 969 732 676 621 336 294 325 341 279 109 43 59 3 0 0 0 0 0 0 0 0 0 0 0
2904 3027 2974 2945 2860 2434 2377 1847 1384 1209 802 552 508 968 1052 740 818 539 413 275 279 221 266 168 35 19 0 0 0 0 0 0 0 0 0 0 0 0
2557 2958 2843 2954 2906 2445 2388 2343 1951 1495 1172 812 336 229 166 205 265 568 390 283 181 132 142 106 45 0 0 0 0 0 0 0 0 0 0 0 0 0
2443 2564 2802 2607 2622 2445 2308 2427 2351 2169 1463 1108 595 249 96 91 108 158 270 179 154 85 4 11 0 0 0 0 0 0 0 0 0 0 0 0 0 0
2747 2484 2568 2621 2303 2204 2163 2400 2290 2188 2040 1339 829 370 211 154 148 118 142 228 194 49 0 0 0 0 0 0 0 0 0 0 0 0 0 0 0 0
3100 2943 1951 2205 2190 1947 2045 2075 2056 2201 2165 1556 960 639 385 202 111 82 78 133 116 0 0 0 0 0 0 0 0 0 0 0 0 0 0 0 0 0
2681 2659 2726 2122 1380 1364 1545 1646 1995 2121 2104 1623 1121 625 339 224 197 178 114 83 16 1 0 0 0 0 0 0 0 0 0 0 0 0 0 0 0 0
2683 2686 2634 2417 2454 1321 968 1160 1745 1930 1764 1397 867 428 301 210 94 72 35 3 20 0 0 0 0 0 0 0 0 0 0 0 0 0 0 0 0 0
2085 2656 2604 2290 1927 1631 972 984 1237 1395 1285 913 412 290 186 95 33 5 0 1 2 0 0 0 0 0 0 0 0 0 0 0 0 0 0 0 0 0
2041 1913 2270 2102 1503 1310 937 926 876 792 640 324 293 49 0 18 1 0 0 0 0 0 0 0 0 0 0 0 0 0 0 0 0 0 0 0 0 0
1524 1668 1550 1485 1134 796 504 463 393 288 316 284 130 14 65 0 0 0 0 0 0 0 0 0 0 0 0 0 0 0 0 0 0 0 0 0 0 0
123 517 1186 1212 838 521 255 142 117 139 211 166 121 35 3 1 0 0 0 0 0 0 0 0 0 0 0 0 0 0 0 0 0 0 0 0 0 0
0 0 0 0 96 229 148 12 4 47 79 73 3 4 0 0 0 0 0 0 0 0 0 0 0 0 0 0 0 0 0 0 0 0 0 0 0 0
0 0 3 3 7 16 30 4 0 2 8 1 22 0 0 0 0 0 0 0 0 0 0 0 0 0 0 0 0 0 0 0 0 0 0 0 0 0

GFSNE_con_mlcape_039.txt.gz
CAPE
438 449 82 38 87 35 3 0 0 0 11 2 0 7 0 0 0 0 0 0 0 0 0 0 0 0 0 0 0 0 0 0 0 0 0 0 0 0
1506 828 161 90 68 78 53 6 0 0 0 29 0 8 36 2 0 0 0 0 0 0 0 0 0 0 0 0 0 0 0 0 0 0 0 0 0 0
1859 1485 949 159 7 28 97 40 26 0 0 0 18 35 28 14 2 0 1 53 0 0 0 0 0 0 0 0 0 0 0 0 0 0 0 0 0 0
2036 1615 1240 825 184 0 171 59 19 43 11 0 64 150 17 0 0 4 3 0 0 2 0 0 0 0 0 0 0 0 0 0 0 0 0 0 0 0
1933 1802 1399 1032 488 248 18 281 215 24 114 81 35 245 94 86 79 48 7 0 4 68 32 0 0 0 0 0 0 0 0 0 0 0 0 0 0 0
2117 2297 1910 1399 1086 711 390 43 230 315 149 179 67 40 86 296 147 98 87 138 77 111 43 4 0 0 0 0 0 0 0 0 0 0 0 0 0 0
1649 2031 2343 2057 1592 1173 823 421 38 127 290 72 59 86 37 82 247 238 143 142 161 132 112 10 0 0 0 0 0 1 6 1 0 0 0 0 0 0
2040 1815 2161 2421 2231 1783 1324 1054 687 149 6 260 49 29 25 57 173 228 223 135 136 103 90 103 0 0 0 0 1 3 0 5 0 0 0 0 0 0
2409 2378 2026 2263 2443 2401 1823 1511 1218 1029 361 16 131 113 48 50 79 170 166 85 50 25 24 14 35 23 15 1 6 0 0 0 0 0 0 0 0 0
2767 2716 2598 2446 2417 2484 2487 2033 1595 1296 1053 536 80 32 121 163 202 210 196 110 96 48 7 42 41 32 5 0 0 0 0 0 0 0 0 0 0 0
2721 2819 2923 2806 2695 2413 2594 2378 2046 1628 1082 857 523 278 243 503 619 544 216 142 103 117 131 44 26 34 15 0 0 0 0 0 0 0 0 0 0 0
2698 2626 2635 2806 2766 2461 2579 2565 2321 1974 1578 1158 622 486 664 568 535 381 216 137 97 100 74 86 42 54 12 0 0 0 0 0 0 0 0 0 0 0
2743 2616 2554 2435 2439 2495 2385 2692 2506 2203 1656 1374 1213 821 393 379 447 401 254 192 116 57 31 53 46 19 1 0 0 0 0 0 0 0 0 0 0 0
3171 2973 2686 2314 2129 2183 2189 2545 2454 2232 2065 1418 1332 1002 519 211 169 163 191 86 63 85 46 26 0 0 0 0 0 0 0 0 0 0 0 0 0 0
3377 3270 3088 2814 2306 1808 1893 2083 2199 2298 2310 2028 1568 1218 565 299 102 20 0 22 25 39 14 0 0 0 0 0 0 0 0 0 0 0 0 0 0 0
2985 3124 3102 2903 2769 2274 1835 1255 1354 1983 2312 2359 2157 1447 451 135 113 8 0 0 8 0 0 0 0 0 0 0 0 0 0 0 0 0 0 0 0 0
2211 2391 2877 2947 2732 2549 1853 1624 1222 1293 1730 2025 2170 1722 338 161 144 46 6 3 0 3 0 0 0 0 0 0 0 0 0 0 0 0 0 0 0 0
1477 1981 2219 2525 2786 2705 2573 2288 1347 1320 1484 1624 1679 1177 310 111 114 59 0 10 0 1 0 0 0 0 0 0 0 0 0 0 0 0 0 0 0 0
1012 1459 1625 1866 2213 2496 2499 2335 1751 1274 1193 1327 1385 498 238 33 31 37 0 3 1 0 0 0 0 0 0 0 0 0 0 0 0 0 0 0 0 0
0 0 103 537 1115 1519 1841 1752 1472 1156 935 1065 1100 399 54 2 26 0 8 0 1 1 0 0 0 0 0 0 0 0 0 0 0 0 0 0 0 0
0 0 0 0 0 0 10 205 600 813 749 674 638 118 3 1 3 1 1 0 0 0 0 0 0 0 0 0 0 0 0 0 0 0 0 0 0 0
0 0 0 0 0 0 0 1 2 27 167 304 307 145 1 0 2 1 0 1 0 0 0 0 0 0 0 0 0 0 0 0 0 0 0 0 0 0
0 0 0 0 0 0 1 0 1 1 4 8 68 1 2 2 18 2 1 0 0 0 0 0 0 0 0 0 0 0 0 0 0 0 0 0 0 0

GFSNE_con_mlcape_042.txt.gz
CAPE
320 380 67 25 48 69 0 1 0 0 5 32 12 6 1 0 0 0 0 0 0 0 0 0 0 0 0 0 0 0 0 0 0 0 0 0 0 0
1103 325 257 105 51 60 63 1 0 0 0 0 33 0 0 0 2 0 0 0 0 0 0 0 0 0 0 0 0 0 0 0 0 0 0 0 0 0
1582 1386 610 68 36 44 43 31 13 0 0 0 1 5 11 4 1 21 0 0 0 0 0 0 0 0 0 0 0 0 0 0 0 0 0 0 0 0
1691 1631 1550 1236 537 12 22 38 51 0 0 0 0 53 27 31 13 5 0 0 0 0 0 0 0 0 0 0 0 0 0 0 0 0 0 0 0 0
1763 1709 1567 1571 1323 804 35 0 34 82 0 0 0 20 99 44 28 11 0 1 23 17 12 5 7 5 0 0 0 0 0 0 0 0 0 0 0 0
1623 1658 1546 1499 1510 1341 915 274 6 17 161 68 19 36 67 83 8 11 28 22 21 28 48 71 48 17 0 0 0 0 0 0 0 0 0 0 0 0
1648 1723 1784 1697 1641 1572 1420 1155 624 227 27 133 155 41 29 97 80 19 26 29 48 27 33 17 11 15 1 0 0 0 0 0 0 0 0 0 0 0
1696 1664 1613 1744 1675 1562 1513 1542 1248 1070 649 128 77 118 91 30 57 61 52 23 41 28 47 41 8 23 0 0 0 0 0 0 0 0 0 0 0 0
1991 1938 1916 1857 1807 1793 1383 1409 1525 1361 1279 707 382 131 22 11 3 24 59 57 50 50 52 51 15 17 9 0 2 0 0 0 0 0 0 0 0 0
2254 2236 2201 2210 2084 2035 2063 1754 1428 1451 1216 1039 791 467 163 45 5 2 9 43 35 20 10 23 4 15 0 21 4 7 0 0 0 0 0 0 0 0
2464 2420 2476 2497 2443 2079 2181 2229 2077 1722 1422 1155 1268 1079 396 58 31 5 31 16 14 31 0 11 10 21 1 1 0 0 0 0 0 0 0 0 0 0
2594 2681 2460 2538 2625 2395 2371 2346 2391 2367 2055 1707 1173 897 704 317 67 61 77 39 25 37 5 3 5 15 8 0 0 0 0 0 0 0 0 0 0 0
2684 2700 2716 2521 2255 2236 2329 2678 2592 2563 2430 2107 1690 1326 976 660 235 212 192 90 54 28 8 0 5 2 0 0 0 0 0 0 0 0 0 0 0 0
3089 2999 2922 2679 2340 2076 1865 2113 2318 2301 2457 2540 2047 1671 1415 741 432 320 245 142 105 33 4 57 28 5 1 0 0 0 0 0 0 0 0 0 0 0
3313 3284 3212 2984 2698 2232 1948 1963 1758 1833 2170 2421 2517 2271 1573 1312 601 352 265 173 127 38 0 0 0 0 5 0 0 0 0 0 0 0 0 0 0 0
2593 2942 2963 2840 2665 2551 2221 1693 1291 1440 1710 2042 2231 2411 2333 1447 712 221 203 107 93 8 1 0 7 0 0 0 0 0 0 0 0 0 0 0 0 0
2383 2279 2508 2536 2734 2727 2642 2370 1999 1401 1434 1524 1836 2047 2237 1978 696 126 42 7 25 5 1 0 0 0 0 0 0 0 0 0 0 0 0 0 0 0
1290 1634 1699 1622 1711 1836 2094 2349 2453 2051 1684 1383 1396 1505 1672 1881 976 42 3 2 3 7 2 2 1 0 0 0 0 0 0 0 0 0 0 0 0 0
657 570 603 535 583 905 1278 1523 1821 1986 2110 1481 1244 1305 1302 1249 1020 176 2 2 2 2 2 1 0 2 0 0 0 0 0 0 0 0 0 0 0 0
0 0 0 0 0 0 0 0 0 0 0 20 347 648 742 930 609 247 2 2 1 2 1 3 2 0 0 0 0 0 0 0 0 0 0 0 0 0
0 0 0 0 0 0 0 0 0 1 1 1 3 8 130 226 229 150 27 2 1 1 1 1 2 0 0 0 0 0 0 0 0 0 0 0 0 0
0 0 0 0 0 0 0 2 2 1 0 0 1 3 19 0 1 0 0 0 0 0 2 1 0 0 0 0 0 0 0 0 0 0 0 0 0 0
0 0 0 0 0 0 0 0 0 0 2 0 1 0 1 0 0 0 0 0 0 0 0 0 0 0 0 0 0 0 0 0 0 0 0 0 0 0

GFSNE_con_mlcape_045.txt.gz
CAPE
489 335 68 31 43 27 0 0 0 0 0 6 13 0 0 16 9 0 0 0 0 0 0 0 0 0 0 0 0 0 0 0 0 0 0 0 0 0
898 430 360 215 41 35 81 20 0 0 4 0 12 8 2 0 0 2 0 0 0 0 0 0 0 0 0 0 0 0 0 0 0 0 0 0 0 0
1245 1131 729 335 261 145 30 48 49 4 3 0 0 0 0 0 1 19 0 0 0 0 0 0 0 0 0 0 0 0 0 0 0 0 0 0 0 0
1342 1461 1215 1257 777 291 42 36 32 15 24 28 0 0 0 0 0 0 0 0 0 0 0 0 0 0 0 0 0 0 0 0 0 0 0 0 0 0
1220 1379 1443 1385 1098 1198 1012 530 11 0 0 5 10 0 0 0 0 0 0 0 0 0 0 0 0 0 0 0 0 0 0 0 0 0 0 0 0 0
1386 1334 1424 1451 1364 1219 1125 1099 954 394 0 0 0 4 11 10 0 0 0 0 0 0 0 0 0 0 0 0 0 0 0 0 0 0 0 0 0 0
1396 1369 1444 1533 1423 1433 1314 1027 838 821 698 420 25 0 1 14 39 8 1 0 0 0 0 1 0 0 0 0 1 0 0 0 0 0 0 0 0 0
1430 1417 1449 1564 1558 1398 1328 1415 1325 972 867 748 735 461 207 7 0 1 0 0 1 3 0 0 0 0 0 7 23 3 0 0 0 0 0 0 0 0
1702 1629 1622 1653 1627 1715 1419 1286 1194 1248 1437 1436 909 851 612 264 85 31 15 2 2 4 10 5 3 0 3 3 0 0 0 0 0 0 0 0 0 0
1875 1842 1842 1868 1882 1849 1867 1851 1533 1386 1086 872 1152 1354 971 557 33 89 81 8 0 0 2 1 4 12 15 1 0 0 3 0 0 0 0 0 0 0
2060 2063 2123 2112 2074 1875 2033 2106 2120 2096 1509 1198 1059 1102 1086 940 452 12 34 6 9 0 0 11 9 11 45 44 22 22 0 6 0 0 0 0 0 0
2088 2226 2148 2206 2187 2045 2134 2206 2327 2279 2165 2109 1737 1256 916 881 362 132 352 93 49 14 6 17 5 0 6 3 21 1 15 1 0 0 0 0 0 0
2240 2329 2376 2303 2144 2078 2069 2501 2536 2532 2465 2329 2353 2296 1968 1406 1166 533 276 192 155 50 60 12 8 0 0 0 0 10 0 0 0 0 0 0 0 0
2657 2693 2700 2561 2314 2118 1921 2047 2187 2174 2363 2423 2513 2618 2609 2168 1555 988 683 513 132 253 243 30 4 0 0 0 0 0 0 0 0 0 0 0 0 0
2955 3091 3043 2901 2617 2088 1737 1677 1508 1518 1672 1964 2236 2374 2425 2488 2304 1595 666 290 201 141 26 0 2 0 0 0 0 0 0 0 0 0 0 0 0 0
2375 2775 2735 2619 2635 2728 2605 2263 1788 1735 1882 1934 1960 2030 1991 2067 2196 2049 1322 658 358 274 89 1 0 0 2 0 0 0 0 0 0 0 0 0 0 0
2436 2279 2569 2645 2825 2673 2319 2088 2007 1680 1327 1227 1198 1294 1364 1327 1539 1814 1604 863 567 436 194 2 2 0 0 1 1 0 0 0 0 0 0 0 0 0
2315 2592 2393 1840 1672 1489 1351 1297 1299 1329 1216 1013 898 924 755 651 827 933 884 877 534 336 180 2 1 0 2 2 0 0 0 0 0 0 0 0 0 0
1755 1296 1017 593 151 6 0 0 0 0 0 0 0 0 0 3 25 187 630 441 303 178 139 2 2 0 1 0 1 0 0 0 0 0 0 0 0 0
0 0 0 0 0 0 0 0 0 0 0 0 0 1 3 2 2 4 7 109 106 200 60 1 0 1 0 0 0 0 0 0 0 0 0 0 0 0
0 0 0 0 0 0 0 0 1 0 0 1 0 1 0 1 2 1 0 0 0 0 0 0 0 0 1 0 0 0 0 0 0 0 0 0 0 0
0 0 0 0 0 0 0 0 0 1 1 2 0 0 0 0 0 0 0 0 2 0 0 2 2 3 0 0 0 0 0 0 0 0 0 0 0 0
0 0 0 0 0 0 0 0 1 2 2 1 0 0 0 0 0 0 0 0 0 0 0 3 2 0 0 0 0 0 0 0 0 0 0 0 0 0

GFSNE_con_mlcape_048.txt.gz
CAPE
657 453 148 49 2 0 0 0 0 0 0 0 11 0 0 34 135 182 119 7 0 0 0 0 0 0 0 0 0 0 0 0 0 0 0 0 0 0
963 796 564 343 137 30 40 1 0 0 0 0 0 0 0 0 0 47 50 17 0 0 0 0 0 0 0 0 0 0 0 0 0 0 0 0 0 0
1048 1126 925 574 363 291 102 25 15 0 24 17 0 0 0 2 1 9 7 0 0 0 0 0 0 0 0 0 0 0 0 0 0 0 0 0 0 0
996 987 1088 1204 1073 899 681 238 22 12 1 36 16 3 27 2 0 0 0 0 0 0 0 0 0 0 0 0 0 0 0 0 0 0 0 0 0 0
1334 1209 1132 1133 1191 1234 1099 975 684 256 28 0 0 0 0 0 7 0 0 0 0 0 0 0 0 0 0 0 0 0 0 0 0 0 0 0 0 0
1381 1484 1447 1312 1176 1247 1173 1113 1093 884 756 683 422 96 0 0 0 9 16 0 5 2 0 0 0 0 0 0 0 0 0 0 0 0 0 0 0 0
1276 1422 1560 1544 1359 1257 1323 1155 1004 844 880 612 507 487 326 270 244 121 8 6 31 9 4 7 0 0 0 0 1 2 0 0 0 0 0 0 0 0
972 1106 1326 1438 1404 1283 1181 1308 1565 1289 1108 967 864 862 797 625 439 251 222 210 211 7 0 1 1 0 0 2 0 2 16 6 2 0 0 0 0 0
1398 1460 1463 1445 1375 1509 1294 1207 1250 1281 1455 1656 1494 1339 1259 1100 828 537 258 343 371 200 0 0 0 0 5 0 0 0 5 0 0 0 0 0 0 0
1285 1375 1470 1651 1752 1747 1760 1779 1705 1545 1276 1224 1429 1759 1778 1745 1348 904 702 397 193 123 4 2 30 0 0 4 0 0 0 0 0 0 0 0 0 0
1388 1480 1496 1504 1671 1528 1723 1750 1824 1971 1791 1348 1191 1291 1279 1238 1129 1185 655 132 241 241 29 0 39 0 0 0 0 0 0 0 0 0 0 0 0 0
1509 1625 1568 1703 1806 1693 1859 2006 2145 2224 2218 2289 2152 1474 1144 1162 898 696 959 1062 573 228 120 0 6 0 0 0 0 0 0 0 0 0 0 0 0 0
1691 1703 1853 1740 1627 1656 1674 2172 2321 2423 2395 2305 2336 2352 2376 2235 1739 1530 1257 1103 1199 849 760 24 21 0 2 0 0 0 0 0 0 0 0 0 0 0
2042 2067 2166 2066 1958 1903 1665 1718 1873 1892 2036 2196 2341 2492 2521 2551 2573 2346 1677 1145 924 1244 1352 375 53 10 2 2 1 0 2 1 0 0 0 0 0 0
2210 2411 2429 2406 2327 1973 1801 1727 1469 1369 1568 1815 2074 2196 2148 2212 2193 2137 2213 2025 1445 838 450 497 304 137 2 1 0 0 2 0 0 0 0 0 0 0
1643 2101 2120 2179 2325 2474 2434 2160 1776 1619 1490 1519 1575 1561 1605 1476 1107 1334 1089 974 1009 1047 847 214 142 75 85 3 1 2 1 0 1 1 1 0 0 0
2254 1999 2293 2416 2577 2529 2407 2066 1724 1497 1231 973 828 640 471 269 245 317 331 293 296 583 461 638 392 118 29 63 2 2 2 0 3 1 0 0 0 0
2438 2809 2726 2606 2456 1788 1434 1014 392 54 2 0 0 0 0 0 0 0 1 4 3 2 94 355 304 65 5 1 0 1 0 1 4 3 1 0 0 0
2452 2315 2040 1507 892 350 43 0 0 0 0 0 0 1 0 1 1 0 1 2 4 9 17 57 133 209 8 0 0 0 0 2 2 4 0 0 0 0
870 767 381 25 0 0 0 0 0 0 1 1 1 0 0 0 1 1 0 0 1 1 1 0 0 0 0 0 0 1 0 0 1 1 0 0 0 0
0 0 0 0 0 0 0 1 2 3 1 3 1 0 0 0 0 0 0 1 1 0 0 0 0 0 0 0 0 4 2 0 0 0 0 0 0 0
0 0 0 0 0 1 0 0 1 1 1 1 2 2 1 2 0 0 0 0 0 0 0 1 2 0 0 0 0 0 0 0 0 0 0 0 0 0
1 3 2 1 1 1 3 2 0 0 1 1 2 2 1 0 0 1 1 1 0 1 0 0 0 0 0 0 0 0 0 0 0 0 0 0 0 0

GFSNE_con_mlcape_051.txt.gz
CAPE
1475 1337 855 597 257 109 69 86 166 206 160 304 267 537 449 535 580 637 698 559 88 0 0 0 0 0 0 0 0 0 0 0 0 0 0 0 0 0
1570 1670 1502 1283 848 537 396 263 187 227 242 294 275 372 410 296 377 325 528 414 200 5 0 0 0 0 0 0 0 0 0 0 0 0 0 0 0 0
1809 1701 1691 1721 1386 1010 748 575 382 267 273 255 437 350 367 396 386 375 293 357 358 60 0 0 0 0 0 0 0 0 0 0 0 0 0 0 0 0
2018 1897 1705 1767 1638 1664 1376 1094 823 699 331 115 316 462 448 512 589 469 416 244 242 166 1 0 0 0 0 0 0 0 0 0 0 0 0 0 0 0
2082 2143 1960 1946 1900 1751 1960 1687 1534 1375 985 603 536 598 623 516 478 519 389 341 335 158 5 0 0 0 0 0 0 0 0 0 0 0 0 0 0 0
1866 2143 2246 2232 2144 2153 2174 2111 2015 1807 1590 1498 1255 1146 1105 981 692 447 434 514 449 314 162 6 8 0 0 0 0 0 0 0 0 0 0 0 0 0
1806 1967 2110 2123 1944 2036 2187 2228 2170 1991 1782 1463 1345 1259 1224 1221 1160 1119 1030 1017 941 792 567 417 272 96 23 0 0 0 0 0 0 0 0 0 0 0
1565 1788 1956 1665 1406 1155 1186 1371 1801 2230 1993 1922 1784 1777 2091 1924 1815 1774 1682 1553 1551 1539 861 540 324 286 153 62 0 0 0 0 0 0 0 0 0 0
1921 1938 1825 1672 1635 1759 1680 1173 1058 1124 1382 1816 2054 2314 2397 2541 2460 2360 2276 2126 1886 1729 1464 1150 947 547 330 362 11 0 0 0 0 0 0 0 0 0
1592 1724 1959 1986 2111 2025 1927 2124 2394 2487 2116 1533 1597 1900 2334 2581 2693 2753 2750 2407 1818 1560 1280 956 1134 1009 756 429 90 0 0 0 0 0 0 0 0 0
1643 1726 1751 1712 1786 1610 1634 1571 1800 2219 2167 2034 1904 1810 1719 1480 1472 1775 1826 1792 1632 1300 1263 1041 894 577 569 703 456 0 0 0 0 0 0 0 0 0
1589 1748 1462 1438 1638 1492 1510 1615 1727 2035 2376 2767 3061 2196 1619 1790 1418 1098 1457 1651 1800 1848 1965 1580 1201 931 508 442 369 151 0 0 0 0 0 0 0 0
1558 1540 1708 1490 1358 1180 1240 1943 2247 2547 2791 2971 2792 2562 2622 2692 2684 2409 1542 1578 1800 1734 1686 1553 1149 732 661 405 299 64 15 1 0 1 0 0 0 0
2243 2341 2463 2082 1711 1503 1273 1457 1638 1774 1983 2175 2273 2315 2353 2322 2463 2590 2651 2453 1821 1562 1607 1483 1181 829 609 492 260 10 2 2 1 3 4 0 0 0
2266 2507 2338 2198 1945 1666 1594 1522 1352 1486 1815 1939 1964 2017 1846 2003 2198 1978 2026 1591 1690 1815 1785 1458 1059 894 655 476 206 200 1 3 2 2 3 1 1 3
1228 1810 2067 1970 2111 2368 2150 1713 1523 1676 1718 1549 1553 1521 1612 1708 968 524 265 239 195 116 208 427 458 495 293 373 254 264 159 2 2 2 3 2 3 3
2093 2117 2247 2356 2480 2397 2338 2301 2093 1637 1357 1299 1208 965 448 105 59 40 4 0 2 7 12 3 29 140 205 142 158 111 15 2 2 0 1 1 2 3
2354 2842 2942 2721 2608 2574 2342 1871 1222 826 674 152 1 0 0 0 0 0 1 3 1 3 3 2 7 1 1 2 2 0 1 0 2 2 1 2 2 5
2950 2926 2776 2602 2240 1680 1068 692 568 191 14 0 0 0 0 0 0 1 3 0 0 0 0 1 4 1 0 0 1 0 2 3 2 3 2 2 2 1
2182 2294 1929 1328 708 483 275 128 26 0 0 1 2 2 4 1 4 2 1 0 0 0 0 0 0 1 4 5 0 4 0 1 0 3 0 0 1 0
523 370 129 60 56 10 0 1 2 1 2 2 2 1 2 5 4 5 5 5 0 0 0 0 0 0 4 2 0 1 1 0 0 0 0 1 0 0
0 0 0 2 2 2 1 4 5 1 1 2 3 4 4 4 2 5 4 7 3 1 0 0 2 4 21 15 0 3 5 2 0 0 0 0 0 0
1 0 0 0 0 0 0 0 0 4 5 4 4 3 4 3 8 5 5 5 8 5 1 1 1 1 0 0 0 5 2 0 1 0 0 0 0 0

GFSNE_con_mlcape_054.txt.gz
CAPE
1492 1438 1185 445 368 232 244 254 244 342 315 641 163 814 611 620 755 813 863 764 331 85 0 0 0 0 0 0 0 0 0 0 0 0 0 0 0 0
1540 1558 1651 747 721 573 492 414 358 333 274 180 316 424 668 646 418 731 817 846 640 373 146 2 0 0 0 0 0 0 0 0 0 0 0 0 0 0
1791 1623 2098 2196 1435 796 716 667 538 469 378 242 228 348 1017 1314 1054 962 873 839 621 383 215 65 0 0 0 0 0 0 0 0 0 0 0 0 0 0
2080 2046 1951 1732 2214 2056 1243 963 632 674 566 710 542 334 414 682 867 1157 1240 875 457 248 203 107 1 0 0 0 0 0 0 0 0 0 0 0 0 0
1891 2029 2018 2076 2023 1705 1587 1321 1256 1544 1622 1465 1208 989 865 992 1148 1485 1465 1175 1092 763 391 120 33 0 0 0 0 0 0 0 0 0 0 0 0 0
1903 1981 2260 2393 2458 2611 2661 2506 2441 2274 1735 1689 1392 1105 914 885 1052 1253 1419 1353 1226 1187 1074 758 435 121 0 0 0 0 0 0 0 0 0 0 0 0
1784 2146 2230 2409 2480 2649 2630 2686 2732 2380 1757 1319 1146 1113 1122 1196 1427 1483 1747 1770 1791 1939 1899 1818 1722 1387 890 20 6 0 0 0 0 0 0 0 0 0
1848 2003 2169 2166 2283 2091 1973 1772 1818 2567 2915 2277 1637 1586 2285 2293 2064 2105 1917 2010 2328 2283 2395 2300 2219 2126 1882 1633 1082 87 0 0 0 0 0 0 0 0
1841 1900 1849 1537 1933 2273 1957 1697 1560 1389 1328 1763 2173 2398 2535 2816 3123 3241 2668 2967 3280 3491 3282 2793 2625 2415 2354 2256 1792 883 131 0 0 0 0 0 0 0
1559 1742 2059 1877 1729 1688 1934 2052 2207 2419 2426 2150 2193 2339 2362 2355 2776 3205 3126 2828 2923 2997 2778 2346 2484 2356 2242 2028 1715 1236 636 120 0 0 0 0 0 0
1612 1845 2000 2127 2089 1882 1995 1849 1858 1900 1615 1591 1690 1751 1825 1933 2062 2383 2425 2642 2711 2762 2874 2815 2859 2724 2483 2229 1974 1525 775 240 0 0 0 0 0 0
1593 2012 1704 1733 1904 1754 1916 1732 1722 1608 1680 1893 2256 2763 2463 2521 2277 2131 2579 2522 2706 2638 2745 2948 2369 1856 1478 1449 1244 1361 989 118 0 0 0 0 0 1
1214 1021 1212 1145 1287 1182 1151 1782 1892 1965 2271 2824 3290 3563 3484 3301 3364 3457 3048 2560 2561 2463 2530 2131 1730 1618 1471 1180 1101 1024 840 707 27 8 0 0 0 1
1409 1204 1607 1604 1374 1307 1242 1453 1532 1561 2119 2598 2967 3210 3098 3020 2952 2753 2973 3071 2879 2362 2354 2214 1671 1354 1258 989 737 743 810 323 191 37 1 5 0 0
2031 2259 2322 2356 2138 1919 1690 1720 1438 1848 2337 2655 2724 2686 2637 2304 2627 2576 2535 2257 1557 1379 592 589 359 467 587 763 613 490 440 271 24 6 1 5 6 1
1350 1935 2411 2406 2445 2586 2786 2270 2247 2621 2590 2640 2324 2023 2100 2279 2326 1504 453 294 207 216 286 326 273 277 234 365 267 98 106 99 0 1 1 3 3 2
2164 2367 2524 2536 2709 2996 3128 3150 3183 2713 2137 1924 1847 1924 2314 1787 526 230 222 180 161 172 97 35 26 0 0 0 0 2 3 2 4 2 0 3 3 3
2548 2975 2920 2878 2969 3057 3088 2976 2687 2323 2150 1895 1986 1321 722 336 222 169 101 58 86 88 0 0 0 0 0 1 0 1 1 1 3 3 3 2 3 4
3361 3189 3342 3531 3264 2951 2671 2264 2148 1487 1153 1086 740 534 228 193 98 56 4 120 121 7 3 0 0 0 0 0 1 1 2 2 2 1 2 1 4 4
2909 3114 3045 2674 2237 1882 1430 1304 1045 1056 808 472 265 174 175 189 30 3 66 137 40 2 1 3 0 0 1 0 0 2 0 1 1 1 0 1 0 1
1933 1885 1540 1097 893 673 576 594 700 495 206 146 138 62 46 14 5 2 51 1 0 8 2 3 0 0 0 0 4 0 2 0 0 1 3 1 1 1
1048 854 427 272 173 156 159 188 151 56 30 15 9 4 5 6 4 3 1 2 4 7 7 8 5 5 6 10 9 2 5 5 0 0 0 0 0 0
260 48 10 0 1 2 36 84 26 2 0 0 0 0 1 5 2 6 7 2 5 2 5 5 3 6 5 0 0 1 3 3 1 0 0 0 0 0

GFSNE_con_mlcape_057.txt.gz
CAPE
1470 1585 1074 343 365 227 260 304 367 536 640 1324 279 786 483 531 686 950 963 940 424 202 22 0 0 0 0 0 0 0 0 0 0 0 0 0 0 0
1185 1602 1463 799 629 607 488 416 375 332 342 323 378 438 588 595 569 794 813 714 657 581 398 178 32 0 0 0 0 0 0 0 0 0 0 0 0 0
1814 1568 1996 2025 1601 1007 679 535 493 481 439 389 329 450 1114 1551 1469 1469 1304 1284 1070 659 455 313 170 67 3 0 0 0 0 0 0 0 0 0 0 0
1768 1866 1730 1804 2310 2173 1767 1401 857 951 770 804 706 814 1096 1171 1227 1600 1452 1540 1403 1071 684 384 203 73 19 0 0 0 0 0 0 0 0 0 0 0
1746 1903 1972 2098 2285 1907 2188 1340 1072 1439 1617 1698 1620 1449 1344 1360 1451 1698 1905 1949 1806 1587 1192 810 512 212 42 0 0 0 0 0 0 0 0 0 0 0
1855 1987 2073 2201 2452 2735 2568 2627 2356 2111 1623 1623 1574 1618 1564 1407 1194 1334 1663 1788 1835 1755 1846 1823 1681 984 536 201 17 0 0 0 0 0 0 0 0 0
1903 2104 2088 2248 2192 2690 2550 2621 2526 2609 2202 2039 1793 1491 1243 1237 1759 1732 1837 2299 2426 2122 2134 2516 2643 2942 2833 948 432 73 0 0 0 0 0 0 0 0
2160 2199 2234 2097 1971 1934 2137 2259 2241 2673 3187 2446 1782 1651 1756 2089 2166 2158 2422 2399 2621 2539 3329 3687 3519 3340 3245 3115 2741 1514 766 134 0 0 0 0 0 0
2017 2239 2204 1493 1948 2496 2306 2114 2040 1843 1647 1810 1837 1963 2112 2409 2871 3047 2283 2651 3394 3530 3193 3196 3152 3189 3180 2838 2678 2190 1351 700 240 3 0 0 0 0
1978 2114 2278 2072 2128 2329 2604 2469 2558 2717 2703 2286 2161 2417 2817 2953 3098 2900 2851 2914 3318 3314 3266 3090 3300 3182 3395 3073 2729 1885 1085 741 346 70 0 0 0 0
1772 1789 2109 2508 2650 2082 1814 1901 2297 2672 2050 1507 1552 1967 2110 1933 1515 1706 2282 3126 3112 2891 3265 3408 3289 2986 2180 1879 1797 1257 1104 791 459 17 0 0 0 0
1907 2123 1893 1752 2027 2110 2265 2338 2466 2724 2607 2238 2122 2241 1967 2212 2369 2569 3156 3200 3187 3257 3239 3138 2778 1901 1788 2007 1756 2011 1586 1201 826 319 0 0 0 2
1447 1170 1491 1487 1359 1137 1167 2076 2327 2605 2395 2147 2154 2867 3316 3681 3667 3402 3378 3260 3248 3066 3148 2675 1829 1925 1450 880 950 1134 1181 1095 1048 861 3 0 0 2
1332 744 943 769 748 952 1007 1182 1266 1380 1801 2177 2577 2963 3356 3545 3568 3566 3348 3475 3436 3090 2666 2594 1922 865 785 755 600 686 519 347 581 615 458 0 2 2
1876 1351 1109 1350 1496 1041 911 1314 1523 2007 2289 2703 2987 3320 3317 3519 2817 2603 3239 3069 3249 3139 2150 1049 652 696 402 287 153 3 2 0 10 2 3 0 1 6
1739 1845 1954 2055 2109 2640 2944 2233 2355 2781 2999 3138 3393 3299 2827 2473 2855 2824 2512 935 455 461 660 625 460 263 60 0 0 0 1 3 2 5 0 1 3 3
2174 2212 2147 2166 2483 2852 3150 3243 3383 3393 3259 3328 3138 2561 2695 2680 2853 1958 775 485 431 425 526 379 356 18 0 0 0 0 2 3 3 2 1 3 3 3
2204 2604 2849 2964 3141 3192 3250 3561 3570 3457 3535 3033 2582 2563 2690 2301 1566 805 489 378 382 534 441 259 120 0 0 0 0 0 1 2 2 2 3 1 3 3
3283 3236 3216 3420 3419 3479 3421 3417 3201 3048 2781 2615 2654 2113 1801 1354 570 435 394 282 445 497 300 169 115 0 1 0 0 0 0 1 1 0 0 2 4 2
3483 3271 3738 3562 3918 3681 3463 3169 2673 2358 2202 2015 1621 1447 1083 639 475 503 261 265 449 363 98 111 212 19 5 7 4 0 0 1 1 1 3 2 0 0
3049 3324 3264 3104 2831 2373 2053 1667 1505 1389 1382 1269 1104 776 503 358 343 226 142 70 60 46 44 123 49 0 1 16 5 1 3 0 0 0 1 0 2 4
2488 2251 2114 1456 1161 954 916 918 897 589 451 432 391 317 206 91 140 122 103 69 33 40 8 20 0 1 1 5 2 1 0 4 0 0 0 0 0 0
1286 1089 614 515 357 369 352 338 423 408 234 127 24 8 1 2 65 64 202 22 1 0 0 3 4 8 1 1 0 2 0 4 4 0 0 0 0 0

GFSNE_con_mlcape_060.txt.gz
CAPE
1396 1238 784 782 738 175 237 352 487 483 769 901 809 859 747 853 894 684 644 634 424 289 143 26 1 0 0 0 0 0 0 0 0 0 0 0 0 0
1773 1694 1320 822 1009 1099 650 658 581 491 454 537 746 885 914 739 820 870 1086 941 800 574 401 265 177 91 20 0 0 0 0 0 0 0 0 0 0 0
1817 2034 1548 1436 1400 1939 1604 796 578 770 677 662 1028 900 1141 1125 1197 1188 1337 1321 1328 1165 921 592 346 216 116 17 0 0 0 0 0 0 0 0 0 0
1849 1479 2120 2495 2228 1649 1683 1738 1883 1754 1232 1043 971 655 775 1394 1569 1688 1807 1670 1539 1575 1445 1088 834 529 235 76 16 0 0 0 0 0 0 0 0 0
2279 2102 1873 1975 1997 2592 2344 2053 1582 1667 1540 1320 1750 2288 2072 1736 1648 1805 2038 2020 2059 1965 1782 1468 1236 958 714 383 169 3 0 0 0 0 0 0 0 0
2284 1835 2191 2414 2375 2534 2401 2097 2204 2151 1959 1814 1625 1791 2036 2021 2129 2107 1764 1734 1903 2635 2313 1758 1676 1937 2077 1438 954 373 11 0 0 0 0 0 0 0
2079 2200 2205 2400 2371 2627 2772 2829 2745 2661 2726 2741 2717 2643 2093 1682 1699 2028 2513 2670 2400 2274 2342 3197 3385 3215 3243 2946 2100 1665 1344 619 163 5 0 0 0 0
2246 2161 2477 2068 1850 1668 1731 2182 2394 2382 2615 2875 2881 2492 2105 1954 2343 2020 1851 2104 1964 2620 3386 2982 3274 3466 3412 3373 3140 2585 1986 1293 636 183 0 0 0 0
2344 2325 2354 2206 2061 2212 1858 1501 1560 1723 1813 1969 1967 1944 1925 1792 2003 2316 2263 2609 2730 2839 2899 3314 3391 3351 3400 3580 2244 1577 1242 958 492 192 8 0 0 0
1883 2110 2290 2247 1890 2261 2488 2558 2430 2340 2248 1986 1931 2077 2272 2481 2465 2415 2555 2935 2454 2648 3441 3220 3109 3167 3387 2518 1748 1667 1510 1176 838 529 246 4 0 0
1410 1782 2431 2441 2192 1628 1270 1527 2104 2555 2910 2695 2715 2650 2287 2201 2388 2484 2170 1791 2397 3175 3420 2945 3006 2941 2115 1644 1878 1281 673 793 854 661 464 141 0 0
1560 1675 1481 1283 1575 2279 2539 2391 2087 1821 2063 2440 2621 2406 2101 2053 1753 1641 2408 3044 3408 3324 3150 2785 2326 1820 1942 1927 844 849 901 224 79 278 19 0 0 0
1568 1714 1990 1770 1461 1186 1098 1544 1824 2204 2542 2748 2674 2360 2173 2885 3180 3365 3545 3340 3089 3103 3344 2899 1957 2212 1647 822 814 701 3 0 0 0 0 2 0 0
1905 1997 1830 1556 1528 1357 1106 1069 1215 1354 1830 1877 1849 2088 2517 2771 3455 3815 3739 3398 3248 3104 3008 2931 2524 1565 660 338 212 80 0 0 0 1 4 1 0 2
2149 2011 1428 1221 719 442 430 731 797 1089 1341 1700 2254 2678 2979 3512 3537 3207 2957 3065 3148 2870 2478 2786 998 639 244 141 8 0 0 0 1 4 3 3 1 1
1950 2110 1870 1702 1612 1991 2238 1319 1314 1864 2436 2856 2949 3114 3562 3447 2987 2852 2989 3022 1100 704 695 1191 533 231 79 0 0 0 0 0 2 4 2 2 1 0
2087 2139 2196 2078 1816 2058 2572 3074 2900 2881 2996 3089 3214 3463 3417 2935 2894 2904 2992 1252 708 584 474 745 268 1 0 0 0 0 0 0 1 2 2 2 3 2
1940 2360 2401 2387 2352 2211 2231 2660 3347 3552 3538 3638 3579 3388 3051 2875 2748 2652 1044 658 555 519 502 722 384 131 0 0 0 0 0 1 1 1 0 2 3 2
2647 2484 2570 2929 2947 3203 3416 3727 3847 3830 3775 3473 3347 3051 2763 2558 2017 1101 690 535 402 422 870 346 269 317 152 8 0 0 0 2 1 0 3 4 5 3
2823 3293 3432 3338 3572 3639 3418 3434 3573 3318 3071 2960 2845 2830 2203 1840 1171 798 675 494 334 540 303 58 303 195 43 0 0 0 0 0 0 1 2 2 1 0
3035 3118 3489 3599 3728 3835 3629 3528 3206 2859 2551 2201 2096 1781 1186 857 616 506 394 202 119 119 178 182 93 0 0 0 0 0 0 0 0 0 1 1 1 1
3510 3424 3286 3233 3113 2785 2392 2218 1867 1170 985 788 666 541 355 301 240 236 219 230 120 57 31 34 25 0 0 0 4 2 0 0 0 0 0 0 0 0
2458 2357 1622 1337 915 853 734 698 673 654 614 346 273 174 120 18 17 72 41 132 186 11 0 0 14 0 0 0 0 0 0 0 0 0 0 0 0 0

GFSNE_con_mlcape_063.txt.gz
CAPE
1186 824 561 297 395 599 138 160 263 299 369 693 745 877 457 429 564 700 577 470 294 206 154 74 46 27 1 0 0 0 0 0 0 0 0 0 0 7
947 1156 649 48 85 909 1119 433 498 422 372 370 312 779 1082 845 864 829 625 604 614 568 480 393 312 209 122 20 5 0 0 0 0 0 0 0 0 0
1186 1354 1415 1215 613 821 1628 1582 775 533 523 483 740 1011 807 635 405 988 1081 1099 1055 941 868 814 732 599 423 229 128 34 0 0 0 0 0 0 0 0
1322 1426 1690 1920 1390 1455 1337 1363 1443 1642 1328 942 775 633 1183 1761 1611 1481 1582 1883 1807 1659 1511 1356 1109 921 794 620 436 246 42 11 0 0 0 0 0 0
1583 1628 1466 1425 2095 2190 1990 1906 1800 1777 2091 1938 1809 1878 1824 1409 1642 1805 1858 1819 2090 2225 2184 1873 1393 1348 1898 1718 1432 1125 760 346 124 42 0 0 0 0
1874 1988 1862 1744 1624 1677 1808 1949 1896 1836 1788 1733 1512 1569 2122 2254 2145 1845 1379 1689 1764 1552 1484 1721 2165 3000 2731 2635 2448 2214 1743 1186 773 327 0 0 0 0
1351 1489 2117 1970 1878 2126 2269 2283 2391 2324 2235 2273 2386 2592 2894 2682 2233 1750 1480 1281 1533 1708 1985 2312 2818 2806 3203 3244 3157 2607 1399 853 505 263 55 0 0 0
1693 1690 1665 1921 1963 1833 1917 2277 2563 2604 2645 2742 2572 2315 1961 1573 1299 1345 1543 1586 1752 2140 2562 2525 2488 3215 3231 3211 3028 1777 977 874 352 266 172 79 0 0
2006 1985 1892 1921 1915 2109 2012 1771 1599 1420 1568 1851 1762 1739 1741 1718 1854 1952 1783 1823 2048 2353 2783 2356 2944 3033 2813 2997 1763 1243 417 77 57 26 1 0 0 0
1582 1928 2016 1889 1820 1781 1842 1920 1911 1697 1535 1425 1444 1782 1943 2086 2226 2020 2061 2296 2626 2604 1820 3026 3246 2739 2364 1609 1362 517 191 3 0 0 0 0 0 0
1470 1501 1726 1875 1928 1894 1762 1522 1854 2515 2878 2648 2454 2337 2113 1941 2042 2053 2227 2292 2217 2212 2941 3228 2803 2241 1682 1550 777 316 8 0 0 0 0 0 0 0
1278 1447 1535 1697 1665 1728 1810 1776 1631 1262 1221 1352 1588 1588 1714 2033 2113 1667 1850 2049 2397 2999 3100 2878 2487 1759 1797 1613 671 74 0 0 0 0 0 0 0 0
1061 1114 1242 1153 980 894 1028 1447 1714 1932 2065 2263 2181 2433 2582 2206 1896 1975 2197 2474 3142 3199 3148 2945 2437 2413 1927 778 265 1 0 0 0 0 1 1 1 1
1293 1190 1126 1164 1092 992 782 816 924 934 1300 1550 1748 1751 1673 1548 2057 2484 3373 3502 3365 3227 2910 2664 2564 2259 626 204 91 0 0 0 0 1 3 3 0 1
1831 1538 1497 1372 1197 1033 1037 1074 857 878 1034 1148 1262 1299 1434 1967 2584 3087 3177 2869 3037 2787 1709 2018 1635 568 120 60 1 0 0 0 0 0 1 5 3 1
1880 1638 1378 1334 1191 1192 1237 635 263 632 874 1002 1125 1440 2257 2766 3125 3168 3066 2829 2640 926 590 817 331 76 44 0 0 0 0 0 0 0 3 3 2 2
1833 1672 1583 1589 1668 1591 1636 1623 1286 1231 1312 1596 2088 2655 2919 3141 3110 2912 2744 2709 2024 578 370 282 0 0 0 0 0 0 0 0 0 0 1 1 2 2
1520 1856 1770 1759 1743 1697 1550 1629 1845 1876 2005 2351 2715 2874 3003 3075 2983 2742 2518 1085 647 483 296 276 257 35 0 0 0 0 0 0 0 0 1 0 0 2
1956 1747 1841 1847 1885 1854 1774 1557 1529 2214 2531 2957 3212 3126 3129 3049 2615 2095 1098 562 448 270 302 145 80 116 152 49 0 0 0 0 0 0 1 1 0 2
1729 1634 1829 2090 2118 2060 2171 2356 2676 2958 3229 3308 3196 2914 2802 2589 2083 1570 764 448 300 238 121 80 64 61 41 0 0 0 0 0 0 0 0 2 1 3
1564 1916 1937 2071 2173 2589 2771 2947 3164 3050 2845 2637 2329 2393 2314 1813 1239 571 364 205 139 84 58 58 87 2 0 0 0 0 0 0 0 0 0 0 0 1
1705 1918 1831 2353 2833 2946 2744 2497 2452 2423 2278 2031 1419 903 614 503 357 215 186 147 88 58 26 3 0 0 0 0 0 0 0 0 0 0 0 0 0 0
1580 821 386 0 1 869 1097 1235 1297 987 748 538 381 196 172 205 132 67 12 0 2 20 13 0 0 0 0 0 0 0 0 0 0 0 0 0 0 0

GFSNE_con_mlcape_066.txt.gz
CAPE
724 493 439 366 182 254 757 56 93 138 233 310 431 499 806 422 295 397 580 581 521 463 345 205 107 43 2 3 26 11 0 0 0 0 0 0 0 0
786 708 208 180 79 74 969 805 324 245 272 227 273 420 1002 828 773 773 638 635 625 596 558 497 394 312 242 183 176 177 71 10 1 0 0 0 0 0
767 796 788 885 430 621 668 1219 1301 835 454 356 361 793 803 625 1461 1441 1324 1374 1449 1460 1444 1386 1229 994 855 812 747 793 548 300 174 64 0 0 0 0
918 814 1127 1393 1193 1259 1232 1144 1091 1132 1153 1034 810 1197 1313 1555 1380 1372 1967 1815 1844 2064 1914 1347 1272 1298 1461 1772 1507 1568 1377 873 414 178 69 0 0 0
1266 1248 1045 1183 1365 1602 1555 1749 1620 1654 1797 1774 1808 1664 1660 1326 1942 2024 1751 1725 1451 1346 1297 1413 1727 1966 2237 2462 2545 2332 1784 749 273 80 11 0 0 0
1151 1125 1417 1440 1366 1221 1547 1525 1490 1545 1571 1540 1442 1360 1504 2068 2196 2378 2292 1315 1021 1301 1414 1641 2014 2387 2485 2813 2882 2434 709 203 89 47 25 0 0 0
1121 1160 1359 1715 1771 1603 1701 1769 1854 1830 1859 1922 1846 1950 2123 2285 2170 1788 1382 1428 1508 1524 1637 1809 2348 2335 2801 2911 2770 310 7 1 1 0 0 0 0 0
801 866 1245 1245 1358 1781 1823 1870 1954 1917 1928 2015 2056 1998 2052 1878 1520 1466 1665 1793 1583 1721 1980 2167 2458 2365 2910 2496 1033 29 0 0 0 0 0 0 0 0
935 938 1173 1409 1405 1462 1403 1635 1578 1735 2044 2060 1900 1782 1619 1498 1565 1793 1932 1837 1780 1802 2250 2416 2117 2729 2469 1973 135 0 0 0 0 0 0 0 0 0
1194 1183 1308 1384 1427 1471 1452 1426 1445 1481 1350 1198 1320 1495 1494 1628 1768 2091 1964 1935 2056 2253 2258 2210 2747 2690 1688 871 7 0 0 0 0 0 0 0 0 0
1087 1080 1257 1269 1205 1229 1556 1391 1330 1452 1630 1621 1663 1851 1949 1999 1865 1721 1739 2034 2077 2018 1880 2456 2790 2274 1566 1235 48 0 0 0 0 0 0 0 0 0
1132 1146 1075 1325 1291 1141 1244 1279 1208 1235 1239 1190 1281 1202 1250 1328 1488 1403 2127 2146 1778 2173 2805 3005 2671 1894 1674 1291 104 0 0 0 0 0 0 0 0 1
959 915 967 930 944 961 1004 1217 1211 1331 1316 1265 1406 1645 1788 1930 1864 2026 1597 1526 2012 2476 2814 2901 2521 2121 1941 1316 133 0 0 0 0 0 1 0 0 0
1230 967 861 716 601 650 707 999 1197 1169 1177 1174 1177 1215 1348 1384 1619 1611 1485 1949 2333 2971 2985 2690 2246 1736 1248 118 54 0 0 0 0 0 0 2 0 0
1643 1452 994 733 597 446 414 557 454 329 515 752 947 1075 1123 1159 1214 1382 2199 2825 2787 2691 1747 1429 1522 918 133 60 1 0 0 0 0 0 0 3 2 2
1425 1628 1503 1112 926 906 797 632 420 624 812 835 874 922 972 1088 1299 2046 2607 2895 2611 1866 297 340 352 76 3 0 0 0 0 0 0 0 0 2 3 1
1468 1380 1230 1222 1373 1148 1031 994 733 508 555 544 609 700 856 1216 2106 2473 2833 2627 2394 1784 398 13 0 0 0 0 0 0 0 0 0 0 0 0 2 3
1140 1454 1530 1562 1435 1481 1418 1286 1192 1069 1086 1013 1032 1141 1466 2132 2573 2643 2703 2259 1917 938 261 68 0 0 0 0 0 0 0 0 0 0 0 0 0 3
1886 1520 1699 1643 1722 1638 1614 1602 1459 1414 1268 1223 1311 1539 2081 2405 2447 2667 2266 1282 605 212 118 53 76 60 52 50 0 0 0 0 0 0 0 0 0 1
1472 2107 1962 1964 1837 1744 1648 1663 1627 1371 1669 1590 1676 2145 2514 2537 2583 2283 1628 1042 340 148 71 2 0 0 28 6 0 0 0 0 0 0 0 1 2 1
1301 1835 1729 1459 1475 1406 1386 1364 1478 1549 1579 1884 2118 2373 2833 2609 2311 1701 1182 627 246 148 67 5 0 0 0 0 0 0 0 0 0 0 0 0 0 0
759 967 1173 1175 697 377 254 108 88 328 978 1717 2055 2314 1996 1833 1563 990 490 222 139 59 28 0 0 0 0 0 0 0 0 0 0 0 0 0 0 0
909 877 919 627 97 121 149 71 0 0 36 83 36 341 324 482 292 134 80 47 32 2 0 0 0 0 0 0 0 0 0 0 0 0 0 0 0 0

GFSNE_con_mlcape_072.txt.gz
CAPE
715 631 636 644 401 151 480 250 132 138 157 234 388 345 621 907 942 1214 1201 1392 1541 1339 1232 885 920 1022 1339 1347 1225 1156 1077 982 739 375 217 187 117 173
853 806 673 571 469 241 224 499 478 479 439 202 412 465 949 1292 1525 1481 1363 1719 1657 1920 1031 1113 1011 1529 1817 1628 1834 1675 1219 706 409 223 189 187 157 127
835 739 814 684 688 545 518 834 739 590 947 1041 713 998 1242 1650 1512 1407 1837 2171 2249 1268 1372 1175 1242 1578 1797 1992 1855 1076 461 145 38 9 4 3 46 87
786 836 794 841 870 919 997 1075 1142 1104 1035 1012 1194 1326 1425 1387 1546 1592 1960 2128 1728 1586 1588 1174 1385 1697 1709 1774 839 174 1 0 0 0 0 0 0 0
745 791 908 1049 953 991 1161 1314 1369 1461 1526 1428 1378 1474 1478 1549 1684 1632 1547 1820 1570 1601 1564 1339 1652 1872 1544 901 216 0 0 0 0 0 0 0 0 0
834 887 987 977 1062 1200 1177 1297 1311 1335 1448 1402 1411 1537 1512 1679 1668 1424 1448 1796 1500 1731 1710 1538 1667 1958 1140 450 11 0 0 0 0 0 0 0 0 0
938 928 969 1043 1053 1092 1164 1185 1434 1490 1465 1496 1582 1541 1500 1396 1481 1721 1630 1527 1577 1710 1923 1738 2068 2358 1651 257 0 0 0 0 0 0 0 0 0 0
951 1021 1079 1052 1036 969 911 949 1190 1402 1618 1712 1748 1506 1429 1506 1570 1542 1552 1599 1434 1674 1898 1572 2219 2170 1717 140 0 0 0 0 0 0 0 0 0 0
1010 1030 1036 1021 914 976 837 742 670 776 1039 1428 1338 1373 1373 1628 1635 1523 1566 1523 1560 1754 1725 1749 2041 2036 981 1 0 0 0 0 0 0 0 0 0 0
964 1008 1022 1008 937 946 922 855 934 948 1009 922 1016 1287 1503 1555 1465 1509 1422 1259 1394 1551 1535 1848 1941 1979 838 11 0 0 0 0 0 0 0 0 0 0
538 681 746 756 782 695 937 890 772 904 1109 1004 1049 1155 1133 1032 1003 1076 1145 1184 1339 1500 1659 1868 1937 2451 1848 765 0 0 0 0 0 0 0 0 0 1
118 295 223 428 528 587 771 742 585 499 822 990 1050 819 770 875 576 627 1061 1159 1325 1432 1587 1696 2217 2369 2139 1145 274 0 0 0 0 0 0 0 0 1
100 85 386 186 178 286 466 791 469 520 751 801 1005 1131 1153 1109 1038 768 847 1081 1106 1313 1575 1830 1786 2160 2024 2194 746 43 0 0 0 0 0 0 0 0
320 333 407 311 235 91 33 194 240 342 755 896 878 834 897 878 1020 1143 1146 872 1071 1396 1775 1568 1572 2304 2139 1369 766 42 0 0 0 0 0 0 0 0
457 418 327 285 285 236 201 193 169 194 379 530 588 652 782 897 932 824 812 1029 1060 1064 1053 1082 1826 2320 2006 1258 554 99 0 0 0 0 0 0 0 3
199 414 566 593 533 598 473 254 178 364 466 474 610 737 720 633 631 636 838 881 919 1280 695 611 1013 1436 1191 469 189 62 0 0 0 0 0 0 1 1
154 297 640 727 774 749 667 694 514 462 499 531 650 704 730 716 707 750 776 686 869 1317 1540 515 22 102 136 108 76 0 0 0 0 0 0 0 1 3
260 628 748 777 922 900 957 1009 675 501 564 603 657 828 887 927 972 783 635 873 1026 1368 1788 1040 196 72 10 0 0 0 0 0 0 0 0 0 0 2
962 936 1013 1070 1037 940 976 1054 1002 747 650 589 620 748 731 794 844 848 930 1163 1395 1491 1697 922 430 364 512 471 9 0 0 0 0 0 0 0 0 0
1113 1327 1378 1255 1243 1224 1093 1167 1138 1176 1018 867 804 819 853 930 1067 1169 1242 1389 1425 1328 1249 875 530 555 240 362 85 0 0 0 0 0 0 0 2 0
777 1227 1443 1571 1471 1332 1344 1357 1260 1245 1310 1268 1298 1304 1253 1172 1152 1159 1212 1173 1094 940 1161 979 638 105 0 0 0 0 0 0 0 0 0 0 0 0
1156 1027 1144 1334 1352 1312 1262 1306 1317 1295 1401 1430 1458 1372 1065 945 1026 1038 959 794 579 570 547 239 44 8 3 35 40 0 0 0 0 0 0 0 0 0
1290 1202 1095 1045 1080 1113 1133 1174 1252 1435 1401 1091 669 568 404 304 12 0 0 0 0 0 0 0 12 9 3 0 10 0 0 0 0 0 0 0 0 0

GFSNE_con_mlcape_075.txt.gz
CAPE
1625 1383 1437 1545 1404 1085 1167 1080 898 617 680 849 806 1272 1629 1834 2094 2150 2153 1934 1777 1905 1166 1384 1001 1337 1676 1816 2093 1956 1467 959 578 411 352 369 409 449
1426 1640 1536 1346 1360 1224 973 1091 1061 1172 834 1226 1234 1584 1901 2105 1899 2278 2292 2424 2398 1670 1594 1172 1127 1379 1841 2129 1889 1312 701 263 115 30 7 0 17 68
1595 1606 1551 1693 1227 1227 1150 1273 1419 1212 979 763 1643 1779 1981 2437 2240 2473 2024 1929 1844 1741 1550 1169 1300 1578 1835 1770 974 359 44 0 0 0 0 0 0 0
1403 1613 1449 1470 1504 1648 1657 1566 1430 1821 1541 1462 1557 1732 2091 2287 2487 2646 2301 1804 2434 1727 1613 1286 1555 1730 1659 1174 451 2 0 0 0 0 0 0 0 0
1448 1461 1499 1766 1737 1592 1728 1773 1639 1965 2051 2006 1761 1922 2046 2118 2129 1800 2296 2449 1998 1675 1801 1712 1908 1804 1155 616 17 0 0 0 0 0 0 0 0 0
1729 1601 1492 1594 1624 1979 2075 2127 1975 1993 1894 2087 1684 1645 1814 1951 2136 1528 1490 1613 1981 2010 1928 1843 1856 1829 589 89 0 0 0 0 0 0 0 0 0 0
1797 1720 1612 1488 1185 1366 1452 1534 1842 1844 1792 1785 1646 1524 1428 1338 1329 1383 1329 1598 1710 2199 2080 1356 1726 2747 1694 74 0 0 0 0 0 0 0 0 0 0
1496 1774 1717 1269 996 811 791 919 1241 1536 1520 1334 990 995 1615 1708 1187 1393 1324 1508 1252 1404 2071 1477 1833 2719 2965 1186 0 0 0 0 0 0 0 0 0 0
1508 1626 1737 1481 1380 1646 1160 707 648 641 816 1193 1219 1332 1295 1520 1827 1937 1525 1689 1569 1329 1696 1537 1787 2588 2798 121 0 0 0 0 0 0 0 0 0 0
1432 1555 1636 1585 1726 1557 1580 1639 1683 1643 1311 823 966 1290 1648 1894 2133 2030 2068 1919 1776 1590 1870 1765 1702 2514 2717 934 0 0 0 0 0 0 0 0 0 0
1183 1231 1375 1449 1449 787 956 1154 1377 1546 1324 1153 882 1079 1085 952 1048 1485 1454 1299 960 828 1223 1733 1854 2515 2934 2506 172 0 0 0 0 0 0 0 0 0
522 772 722 621 793 511 498 574 735 807 1011 865 1122 960 650 852 453 789 1380 1351 1041 882 1147 1655 1440 2119 2315 2520 1380 78 4 0 0 0 0 0 0 0
652 635 612 381 131 23 46 352 327 739 736 1050 904 749 1020 1467 1635 1168 1135 1341 1161 1011 1125 1870 1611 1949 2414 2288 2171 971 124 0 0 0 0 0 0 0
777 798 767 402 166 42 0 62 208 256 709 694 501 537 621 778 1036 1277 1630 1675 1473 1455 1475 1915 1798 1765 2262 2432 2327 843 56 0 0 0 0 0 0 0
647 922 751 498 229 110 53 81 51 289 511 641 692 739 698 697 1090 1366 1588 1730 1700 1689 1590 1855 2074 1936 1929 2285 2171 1079 252 32 0 0 0 0 0 0
67 415 539 482 371 450 394 77 177 540 632 737 823 873 900 876 984 1269 1248 1240 1234 1428 1617 1754 1747 1620 1685 2047 1795 1124 395 84 0 0 0 0 0 0
194 349 602 719 755 812 772 945 997 719 705 847 1064 1051 1008 987 1049 1204 1301 1284 1289 1241 1326 1212 384 935 1477 1368 1064 616 426 22 0 0 0 0 0 0
276 811 990 1096 1077 938 923 959 995 1023 1063 981 981 970 1003 991 1054 1202 1337 1449 1386 1286 1398 1480 544 539 298 202 215 624 126 13 0 0 0 0 0 0
732 1060 1010 988 873 865 1037 1262 1241 1060 1080 1333 971 943 966 1014 1184 1283 1469 1615 1571 1449 1439 1552 1012 907 1454 1363 472 0 132 5 0 0 0 0 0 0
840 997 1187 1084 1194 1386 1360 1465 1580 1244 1157 1571 1294 1018 1071 1135 1223 1373 1454 1650 1625 1556 1664 1870 1234 702 1632 1823 1216 168 0 12 0 0 0 0 0 0
566 997 1284 1421 1411 1440 1726 1758 1542 1372 1129 1343 1685 1603 1456 1489 1577 1706 1819 1625 1674 1796 1716 1564 1256 696 1326 210 256 81 0 0 0 0 0 0 0 0
1426 1070 1203 1571 1656 1640 1659 1674 1758 1692 1376 1296 1479 1388 1392 1545 1682 1617 1534 1406 1130 1177 1081 946 670 250 199 390 461 232 4 0 0 0 0 0 0 0
1697 1696 1708 1630 1544 1640 1660 1568 1544 1508 1403 1321 1498 1498 1359 1470 1468 1392 1170 977 781 614 509 396 89 16 16 25 86 113 1 0 0 0 0 0 0 0

GFSNE_con_mlcape_078.txt.gz
CAPE
1202 1072 1071 884 1208 1280 1281 1114 1022 754 766 1388 935 1419 1608 1636 2005 2077 2166 1859 2289 1808 1550 1178 1161 1343 1608 1874 1881 1135 633 248 76 0 0 0 0 0
1173 1241 1571 840 1174 1218 1132 1127 1132 1039 844 771 1176 1452 2277 2203 1911 2246 2167 1738 1924 1699 1525 1180 1250 1503 1750 1765 1025 341 64 0 0 0 0 0 0 0
1579 1666 1803 1641 1255 854 1009 978 1034 1148 1058 688 961 1233 2168 2511 2447 2621 2150 1792 1163 1532 1423 1392 1421 1605 1712 1318 534 6 0 0 0 0 0 0 0 0
1541 1662 1692 1320 1702 1487 1234 1236 1157 1210 1281 1105 983 1146 1735 2122 2281 2561 2007 1689 1901 1556 1201 1605 1591 1773 1412 804 134 0 0 0 0 0 0 0 0 0
1518 1727 1571 1573 1634 1024 1448 1124 1223 1438 1371 1244 1177 1029 1348 1787 2115 2005 1835 1703 1276 1221 1063 1300 1499 1804 1122 402 0 0 0 0 0 0 0 0 0 0
1949 2031 1917 1433 1532 1893 1980 1986 1931 1794 1283 1346 1192 1195 1256 1474 1726 1297 845 808 1035 1292 1383 1226 960 1292 805 236 0 0 0 0 0 0 0 0 0 0
2071 2320 2123 1891 1338 1436 1329 1647 1720 1787 1372 1116 1139 1187 1082 1044 1278 821 785 768 801 897 1327 1176 770 1132 476 118 21 0 0 0 0 0 0 0 0 0
2115 2072 2159 1851 1673 1244 910 640 828 1477 1467 816 450 431 835 982 712 729 723 673 643 583 919 641 775 830 2154 3032 33 0 0 0 0 0 0 0 0 0
1791 1801 1657 1305 1769 1892 1410 889 744 667 754 1299 1443 1346 1242 1310 1449 1624 1443 1370 1173 888 847 922 1029 966 1826 377 0 0 0 0 0 0 0 0 0 0
1256 1466 1809 1640 1187 1477 1714 1620 1890 1796 1499 1145 1145 1392 1476 1560 1832 1825 1900 1952 1665 1206 987 792 930 769 1809 1664 39 0 0 0 0 0 0 0 0 0
877 1252 1465 1769 1754 1435 1468 1335 1251 1364 1055 1453 1371 1213 1149 1011 961 1152 837 649 348 259 249 305 472 693 1245 1833 142 0 0 0 0 0 0 0 0 0
779 1025 1015 1139 1240 1222 1522 1479 1381 1231 636 373 843 885 777 1007 497 824 1182 912 437 265 201 533 346 339 839 1524 2562 32 0 0 0 0 0 0 0 0
730 756 829 634 536 397 588 1415 1022 867 432 361 294 390 353 479 1118 1439 1412 1247 553 228 167 610 557 526 763 1230 1902 2452 1792 54 3 0 0 0 0 0
941 886 1025 865 525 359 260 384 488 521 228 2 0 0 24 65 43 374 1659 1946 1477 1583 1522 1894 1091 454 702 1023 1238 1992 1392 588 93 11 0 0 0 0
988 1145 1039 836 550 272 128 160 98 257 298 269 161 95 66 61 220 464 1233 1742 2226 2371 2222 2259 1993 1535 1606 1433 1326 1577 2140 1345 232 11 0 0 0 0
166 262 608 762 845 999 863 239 151 401 436 479 373 169 246 229 276 426 491 545 796 1043 1808 2188 2298 2360 1848 1620 1661 1891 1980 1517 547 89 0 0 0 0
537 662 791 805 953 1147 1212 1111 1085 803 601 645 661 654 659 648 655 617 469 462 503 583 664 1079 2423 2272 1841 1928 1795 2055 1776 1603 1094 355 0 0 0 0
631 955 1239 1364 1409 1449 1522 1540 1411 1227 1194 967 824 760 688 680 688 634 506 471 606 774 862 820 1222 1709 1170 1307 1751 1985 1739 1384 1152 199 0 0 0 0
916 1218 1405 1433 1694 1749 1800 1627 1630 1586 1660 1640 1562 1320 1010 811 671 591 502 635 889 946 1036 1210 1199 1564 1460 974 784 906 1700 1439 753 197 15 0 0 0
839 1146 1361 1624 1637 1489 1309 1518 1580 1583 1790 1896 1645 1497 1523 1109 839 771 768 899 987 1200 1403 1529 1463 1378 1724 1199 541 1072 203 1017 718 211 55 0 0 0
534 865 1251 1392 1801 1758 1844 1898 1965 1983 2207 2139 1931 1981 1880 1508 1126 1010 984 984 1182 1506 1680 1863 1789 1696 1744 1642 1130 1439 400 0 40 161 53 0 0 0
1095 1140 1163 1339 1728 2070 2043 1923 1823 1960 2077 2104 2027 1840 1850 1908 1964 1701 1654 1595 1877 1737 1787 2011 1991 1774 1415 1404 1326 1349 732 0 0 0 0 0 0 0
557 1242 1673 1875 1826 1899 2003 1891 1886 1971 1881 2018 2060 1978 1816 1646 1569 1544 1671 1864 1841 1813 1649 1665 1037 862 859 694 728 690 585 0 0 0 0 0 0 0

GFSNE_con_mlcape_081.txt.gz
CAPE
1121 1235 1245 931 382 632 585 748 1075 1292 1169 1697 819 1787 1806 1726 1849 2317 2220 2194 1424 1922 1457 1020 954 1197 1655 1654 965 379 19 0 0 0 0 0 0 0
771 1628 1241 723 728 624 730 765 784 901 1000 989 930 1528 2122 2423 1874 2387 2471 2142 1844 1706 1312 1101 1085 1330 1714 1293 555 37 0 0 0 0 0 0 0 0
1575 1686 1465 1683 1385 784 567 566 660 837 915 885 1188 1052 2022 2079 2608 2840 2652 2465 1575 1456 1188 1209 1259 1398 1501 1157 457 0 0 0 0 0 0 0 0 0
1415 1403 1372 1252 1797 1706 1494 1379 1119 1650 1435 1519 1402 1093 1292 1822 2378 2755 2507 1964 1864 1300 1148 1046 1298 1344 1352 1008 510 14 0 0 0 0 0 0 0 0
1828 1526 1321 1437 1674 1368 1597 1035 983 1480 1574 1680 1429 1170 1056 1269 1574 2255 2507 1713 1534 864 735 859 1148 1111 977 678 268 3 0 0 0 0 0 0 0 0
1802 1849 1717 1443 1599 1748 1792 1814 1546 1345 1141 1022 930 1067 1218 1369 1440 1577 1239 795 843 787 860 1256 887 786 592 591 60 0 0 0 0 0 0 0 0 0
1936 2042 2096 1636 1306 1563 1394 1652 1695 1713 1185 924 910 976 1057 1271 1530 1359 904 735 669 509 426 703 374 667 265 168 0 0 0 0 0 0 0 0 0 0
1964 1932 1874 2012 1836 1568 1059 671 954 1900 2057 1309 933 650 883 788 562 687 854 577 747 779 529 572 505 703 789 623 363 0 0 0 0 0 0 0 0 0
2019 2142 2009 1146 1757 2246 1765 1200 702 385 395 1015 1589 1532 1232 1437 1641 2114 1471 1713 1372 1028 862 806 830 747 653 587 391 20 0 0 0 0 0 0 0 0
1454 1979 2211 1857 1814 2106 2239 2058 2131 2038 1543 948 858 1073 1540 1854 1879 1761 2223 2357 2110 1963 1826 1115 489 396 416 903 0 54 1 0 0 0 0 0 0 0
1160 1324 1374 1960 2317 1582 1408 1892 2068 1988 1263 1601 1416 1415 1240 956 840 891 578 515 405 183 167 143 207 263 252 481 38 0 3 0 0 0 0 0 0 0
1098 1214 1027 1007 1223 1469 1731 1732 1790 1823 2043 1025 863 1184 1079 1202 806 722 826 472 359 324 167 116 148 222 352 317 772 71 0 0 0 0 0 0 0 0
1034 998 1160 897 607 415 657 1620 1724 1853 1769 1289 1017 916 672 865 1232 1276 1286 1133 466 411 377 223 198 137 171 206 204 319 505 66 0 0 0 0 0 0
1249 1123 1169 764 476 452 339 457 466 589 1033 910 623 205 39 29 47 146 958 1595 1474 1188 1079 1173 1523 1026 556 297 159 305 2579 1287 593 372 0 0 0 0
1216 1237 945 631 418 182 95 218 215 404 549 736 868 818 491 81 0 23 182 1509 2118 2142 2068 2225 2131 1964 1704 1150 614 611 717 1856 1059 670 261 47 0 0
193 561 647 674 639 690 868 459 322 593 748 807 743 784 597 317 173 181 147 140 263 732 1564 1877 1909 2643 2046 1612 1451 1237 1100 1164 1767 829 377 123 0 0
0 66 1226 1131 942 1061 1208 1354 1592 1275 886 725 761 748 681 619 450 395 410 392 486 593 580 678 2239 2478 2510 2237 1683 1556 1541 1405 1785 1022 501 343 143 0
0 66 1049 1239 1509 1536 1564 1569 1752 1717 1742 1562 1122 867 811 769 763 785 738 779 782 766 666 600 627 1616 2264 2459 2100 1831 1646 1579 1436 995 820 556 260 10
0 0 373 1012 1127 1481 1777 1801 1870 1867 2058 1777 1491 1717 1358 1129 909 729 737 950 986 885 766 727 852 1000 1313 1473 1743 1239 1402 1276 1440 797 738 476 211 40
0 8 363 1072 1206 1130 1758 1866 1829 2006 2067 1993 2030 1843 1849 1894 1867 1761 1331 1051 867 898 1059 1181 1162 1117 1192 1533 1618 1612 713 1288 1704 1554 836 382 0 0
1 140 392 644 1301 1386 1392 1632 1724 1664 1794 1855 1914 1946 2045 1930 1905 1868 1877 1095 972 1255 1289 1313 1450 1743 1999 2056 1697 1496 1524 316 394 1202 1190 499 69 0
21 169 533 322 511 1063 1209 1395 1540 1874 2106 1844 1767 2048 1901 1693 1706 1760 1736 1650 1582 1516 1333 1536 1889 1830 1571 1450 1398 1538 1528 770 1 0 0 97 47 0
0 115 440 760 1306 1473 1370 1209 1460 1620 2011 2474 2298 2018 1911 2033 1651 1781 1738 1726 1604 1436 1373 1535 1854 1687 1482 1600 1601 1576 1333 807 221 75 0 0 0 0

GFSNE_con_mlcape_084.txt.gz
CAPE
1307 992 912 874 937 739 710 337 804 1118 1419 1400 923 1662 1998 2051 2107 2061 2712 2632 2047 1820 1904 1311 900 1204 1716 1651 1073 363 0 0 0 0 0 0 0 0
1252 1486 990 678 1090 1394 699 725 998 887 974 1482 1088 1903 2175 2193 1942 2338 2606 2500 2425 2256 1448 1278 955 1184 1576 1527 1082 286 0 0 0 0 0 0 0 0
1378 1153 1476 1364 1227 1403 1921 1633 677 790 1114 1297 1758 1806 1515 1289 1650 2479 2570 2845 2424 1613 1405 1241 978 1095 1214 1363 1008 244 0 0 0 0 0 0 0 0
1404 1243 1227 1612 1434 1503 1286 1070 1317 1076 1133 1270 1346 810 914 1482 2219 2452 2393 2598 2149 1772 1280 1089 925 934 962 1072 935 292 0 0 0 0 0 0 0 0
1725 1546 1242 1568 1512 1188 1692 1678 1625 1618 1400 1346 1365 1870 1216 862 1159 1583 2189 2201 2480 970 716 665 701 761 772 763 803 216 0 0 0 0 0 0 0 0
1849 2010 2087 1917 1616 1472 1456 1460 1549 1634 1312 1150 1003 834 1061 1312 1875 2010 1729 811 818 908 668 679 643 515 488 466 463 109 0 0 0 0 0 0 0 0
1644 1914 2147 2126 1696 1957 1769 1652 1733 1492 1814 1562 1460 1246 1285 1718 916 849 817 1376 1011 587 700 812 746 358 193 136 253 177 0 0 0 0 0 0 0 0
1488 1772 2054 1964 1783 1366 1021 1012 929 1342 1521 1912 1898 1276 867 789 1332 1382 1168 717 440 1749 1354 557 680 539 1046 274 274 243 0 0 0 0 0 0 0 0
1843 1982 2034 1696 1329 1548 1359 1244 1050 576 360 456 622 829 955 942 1250 1113 1382 1293 1249 1167 1425 1366 1421 1247 1210 528 436 244 1 0 0 0 0 0 0 0
1336 1783 2042 1787 1650 1899 2310 2332 1928 1651 1368 851 547 380 384 469 736 818 952 1527 2065 2366 2281 1712 1540 1460 1031 293 204 141 24 0 0 0 0 0 0 0
846 1173 1425 1486 2156 2116 1249 1155 1774 2568 2424 1902 1590 1232 874 646 587 847 914 706 473 360 431 319 193 140 317 330 8 1 0 0 0 0 0 0 0 0
1402 1147 741 712 1219 933 990 2004 1764 1225 1223 1585 1637 981 908 933 827 796 965 824 675 570 452 272 426 253 269 509 160 0 0 0 0 0 0 0 0 0
1552 1458 1501 1213 852 571 522 793 830 1520 1589 1543 1535 1473 1336 1223 1249 971 847 847 599 512 496 335 181 599 806 823 749 99 14 31 0 0 0 0 0 0
1228 1527 1574 406 202 250 369 441 391 421 942 1265 1405 1318 1104 830 651 434 905 904 834 556 612 809 871 754 773 798 508 902 204 175 90 137 0 0 0 0
6 106 199 557 580 414 509 362 23 90 272 473 637 772 922 923 842 563 173 192 729 1158 1262 1236 983 1233 1375 1264 1190 1118 825 913 615 467 21 0 0 0
0 0 0 0 362 608 557 718 327 300 351 464 531 651 833 889 875 838 478 122 59 958 1669 1800 1910 1582 1234 1392 1448 1354 1250 1170 1861 1263 820 203 8 0
0 0 0 85 1007 1315 1544 1296 1215 827 683 714 787 904 967 932 872 721 438 254 251 322 307 657 1771 2058 1891 1777 1655 1873 1729 1669 1559 1375 987 519 132 0
0 0 0 0 94 199 539 898 1107 1226 1311 1195 1038 1001 947 884 811 860 995 693 457 460 477 367 594 1074 1393 1999 2211 1624 1773 1726 1461 1518 1181 726 538 184
0 0 0 0 0 144 121 85 17 760 1089 1362 1392 1493 1326 985 811 704 642 592 746 1024 879 838 809 957 733 712 1487 2191 1725 1352 1417 1466 1019 747 648 335
0 0 0 0 0 155 666 268 98 534 666 1149 1241 1426 1288 1357 1177 1176 1080 951 827 672 579 1007 1008 749 571 564 835 949 1278 1669 1175 1115 1093 659 0 0
0 2 21 33 88 352 819 749 1038 872 480 4 809 1421 1539 1336 1318 1307 1320 1059 989 1062 1222 1019 787 802 1312 1685 1468 1194 1070 266 395 1124 846 753 191 18
0 13 53 96 125 349 207 119 44 273 399 760 785 817 1167 1373 1490 1337 1304 1346 1201 1071 985 1154 1387 1508 1494 1245 1019 1006 996 438 1 8 46 417 565 284
0 0 0 1 139 238 243 270 519 718 423 743 770 813 771 884 1164 1340 1312 1342 1398 1403 1281 1114 959 937 809 869 876 874 899 1083 666 159 18 0 0 0

GFSNE_con_mlcape_087.txt.gz
CAPE
866 560 326 342 339 732 1374 429 802 560 809 1125 1287 1939 1932 2043 1740 1667 2062 2351 2152 2147 2171 1653 1284 903 1401 1623 1134 317 0 0 0 0 0 0 0 0
1395 965 1115 1260 1072 903 1055 1468 1313 929 714 899 1281 2240 1703 1340 1242 1418 1855 2018 2162 2305 1974 1317 1176 813 1152 1439 1163 442 2 0 0 0 0 0 0 0
803 1333 933 1416 954 1105 777 984 986 1334 1095 1155 1404 1224 864 727 1395 1504 1794 2212 1992 2031 1790 1436 1092 820 929 1175 1069 559 102 0 0 0 0 0 0 0
842 1192 661 985 990 1537 1316 822 1204 1222 1461 1157 964 989 1550 1775 1274 953 1260 2342 2107 2043 1554 848 886 740 679 871 877 621 123 0 0 0 0 0 0 0
1077 1115 1366 950 929 1307 856 829 1225 1087 1303 1542 1330 1259 1336 990 789 1221 1536 1936 976 1085 568 450 544 517 484 566 596 578 144 0 0 0 0 0 0 0
1530 1611 1698 1188 1180 1231 1232 974 878 897 909 983 926 927 891 1137 1266 1029 969 1048 947 654 362 956 654 396 309 319 316 273 99 0 0 0 0 0 0 0
1280 1429 1620 1780 2041 1699 1690 1418 1211 966 1127 1290 1385 1759 1763 1614 1098 1366 981 862 592 241 517 640 569 517 346 171 156 61 41 0 0 0 0 0 0 0
1477 1348 1411 1449 1900 2008 1394 1382 1570 1221 913 1115 1149 1281 1270 1203 1124 516 425 77 4 659 810 417 982 903 891 526 350 99 25 4 0 0 0 0 0 0
1348 1636 1390 1464 1509 1793 1560 1054 989 816 820 802 447 183 147 144 199 172 198 262 333 559 1151 690 886 690 763 832 646 89 45 14 0 0 0 0 0 0
1108 1502 1790 1701 1656 1570 1417 1564 1768 1480 1281 1067 974 940 661 640 484 435 498 649 768 1060 1624 566 403 232 264 321 272 97 30 19 0 0 0 0 0 0
997 1001 955 1008 1292 1460 1660 1706 1701 1762 1842 1604 1583 1546 1429 1147 770 736 846 851 703 513 401 339 182 123 50 335 127 3 0 0 0 0 0 0 0 0
1390 1325 1126 968 790 660 616 743 732 748 1112 1369 1258 951 986 1167 1032 692 842 635 590 504 433 286 174 110 171 158 126 0 0 0 0 0 0 0 0 0
1127 1126 1297 741 438 354 162 342 621 593 651 664 1032 1271 1230 1129 1008 839 649 651 571 572 515 338 196 190 331 291 514 70 4 0 0 0 0 0 0 0
166 313 315 189 128 172 380 521 366 272 237 431 543 686 985 1133 1128 953 928 753 699 607 507 304 300 273 330 357 393 458 248 57 1 0 0 0 0 0
0 0 0 0 1 143 329 460 245 177 241 278 389 452 460 578 700 749 669 505 604 679 617 561 441 461 653 595 489 619 819 752 271 117 0 0 0 0
0 0 0 0 0 0 47 175 349 557 482 409 396 403 350 368 510 620 659 693 609 482 444 631 485 624 676 751 855 822 955 1020 791 397 235 50 0 0
0 0 0 0 0 0 4 630 1126 1099 803 597 491 495 504 547 644 689 750 720 613 480 266 189 621 848 1161 1053 963 1154 1132 1116 1305 1188 750 561 113 0
0 0 0 0 0 0 0 0 29 187 506 829 830 719 667 690 787 852 824 763 631 458 318 182 158 542 938 1303 1474 1073 1112 1146 970 792 990 1053 735 142
0 0 0 0 0 0 0 0 0 7 123 81 83 96 657 875 851 792 728 636 648 607 535 455 385 356 423 508 708 1367 1026 900 1124 1187 1048 796 896 759
0 0 0 0 0 0 0 0 45 315 305 179 197 231 112 148 81 13 285 598 565 606 545 467 563 656 778 625 487 422 853 1037 1151 1146 802 412 36 0
0 0 0 0 6 12 13 14 9 156 178 237 175 8 2 0 0 0 0 257 611 746 833 775 718 629 618 573 601 627 659 200 641 963 799 589 269 108
0 0 0 0 0 0 0 7 15 45 49 132 233 224 7 0 0 0 216 435 418 420 539 647 697 806 666 676 834 812 739 368 35 10 33 302 438 431
0 0 0 0 0 0 1 2 3 3 5 4 4 1 30 419 342 240 305 229 242 384 499 494 527 518 572 636 687 666 653 593 359 286 107 0 0 0

GFSNE_con_mlcape_090.txt.gz
CAPE
819 900 686 855 888 948 935 1209 956 753 608 950 1441 1855 1610 1405 991 1261 1481 1721 1906 1954 2086 1951 1499 1229 928 1464 1296 802 62 0 0 0 0 0 0 0
983 1132 907 1066 1170 1115 827 749 953 976 758 898 1553 1621 1087 1006 1473 1420 1163 1087 1656 2130 2034 1675 1376 1101 798 1113 1170 1010 317 1 0 0 0 0 0 0
886 845 816 1008 1006 967 1241 938 859 1023 956 1068 1369 1302 1307 1413 1365 925 1138 1559 1762 1776 1018 573 777 899 777 819 942 919 629 36 0 0 0 0 0 0
1139 910 710 680 652 815 1477 916 1011 1173 1098 1006 1166 1213 1087 1083 888 1057 1325 1637 1490 1077 659 515 523 616 600 620 637 661 647 161 0 0 0 0 0 0
1106 792 879 1089 964 522 813 900 824 826 1004 816 722 962 859 807 1149 1119 1128 1016 850 768 317 426 793 562 435 329 336 360 339 326 0 0 0 0 0 0
1049 1195 1319 1320 1220 982 1094 1091 1107 1012 855 605 625 695 878 1262 1426 1375 1236 626 227 221 135 523 340 580 644 462 246 183 155 110 13 0 0 0 0 0
1205 1338 1445 1430 1456 1434 1542 1543 1365 1154 1077 999 550 719 648 665 731 952 781 355 194 153 206 173 296 274 111 433 253 276 195 56 34 0 0 0 0 0
1356 1318 1378 1256 1178 1158 1223 1644 1601 1335 1163 1233 1078 955 646 379 280 298 247 201 146 330 434 249 552 323 176 247 161 212 201 54 0 0 0 0 0 0
1149 1157 1138 1373 1468 1343 1263 1182 1281 1126 1189 1223 1085 885 926 842 720 678 494 421 459 482 619 400 698 340 293 268 143 19 54 61 0 3 0 0 0 0
799 984 1134 1254 1350 1460 1454 1375 1422 1321 1074 886 913 972 866 925 864 997 822 654 643 734 846 436 257 13 52 80 21 48 32 5 0 0 0 0 0 0
859 936 1015 1037 1060 965 902 1038 1123 1203 1459 1351 1178 1105 1149 1079 1007 881 1217 1102 980 771 495 387 50 29 32 48 63 8 3 0 0 0 0 0 0 0
950 1009 898 940 828 382 670 898 911 811 705 664 746 659 644 762 755 623 956 859 700 566 441 252 229 170 139 79 97 37 0 0 0 0 0 0 0 0
133 347 480 180 154 49 0 197 563 375 396 439 489 584 750 786 729 584 546 748 750 696 735 442 401 251 238 270 236 147 6 1 0 0 0 0 0 0
0 0 0 0 0 0 0 12 38 189 276 400 508 569 571 621 758 822 739 682 783 832 851 498 464 426 289 257 230 174 151 52 0 14 0 0 0 0
0 0 0 0 0 0 0 0 0 0 34 282 407 476 449 438 488 571 651 780 750 697 659 634 531 472 335 378 306 216 213 355 105 125 20 0 0 0
0 0 0 0 0 0 0 0 0 0 3 321 403 424 380 359 346 369 457 453 433 528 465 496 523 483 448 366 321 285 276 465 494 340 188 28 0 0
0 0 0 0 0 0 0 0 0 0 0 45 228 371 412 380 468 377 398 441 473 587 650 547 333 329 381 352 333 362 442 526 592 677 433 403 86 0
0 0 0 0 0 0 0 0 0 0 0 0 13 41 128 247 492 342 396 575 603 683 668 541 325 237 504 762 793 594 556 622 722 705 679 772 655 225
0 0 0 0 0 0 0 0 0 0 0 0 20 113 173 159 163 457 592 620 645 391 269 205 312 175 263 348 288 653 768 735 687 724 753 669 877 765
0 0 0 0 0 0 0 2 1 0 0 0 7 12 43 110 89 0 18 44 26 18 3 2 13 138 300 455 419 398 285 904 801 718 600 574 228 2
0 0 0 0 0 0 0 0 2 14 11 11 3 5 12 27 22 0 0 0 0 0 0 3 62 273 249 267 382 457 420 135 400 731 645 606 459 236
0 0 0 3 0 0 3 2 4 0 1 4 4 5 2 2 1 3 2 0 0 0 8 67 153 235 199 256 310 420 377 300 45 25 119 351 583 607
0 0 0 1 0 0 5 2 0 0 0 0 0 2 0 1 1 0 4 1 105 51 42 61 168 193 245 263 280 322 347 338 202 173 152 0 0 0

GFSNE_con_mlcape_093.txt.gz
CAPE
831 831 918 841 937 1050 744 981 910 617 609 852 1466 1675 987 1036 1452 1319 1022 1150 1255 1560 1416 722 838 1111 1126 845 1091 1007 628 33 0 0 0 0 0 0
965 1024 978 1042 1163 1053 973 687 774 742 668 672 1209 1155 1280 1194 1094 1042 1179 1350 1668 1442 681 472 448 666 919 773 822 862 701 238 0 0 0 0 0 0
898 932 888 708 890 824 1198 978 795 891 873 929 1083 1150 1056 888 835 923 1091 1171 1069 894 466 221 515 541 590 611 611 636 594 326 0 0 0 0 0 0
698 828 911 890 613 655 920 1059 777 847 734 514 506 517 598 668 857 959 1166 1050 663 165 25 88 683 240 516 462 297 277 320 238 19 0 0 0 0 0
874 913 935 806 929 1000 760 715 853 934 904 917 595 634 668 778 1001 1153 1237 979 667 297 114 61 306 233 369 241 459 355 226 127 9 0 0 0 0 0
962 952 870 949 1001 1050 1132 1083 1143 1159 971 883 811 739 657 743 670 419 94 247 152 198 116 186 284 228 171 131 92 51 64 115 24 0 0 0 0 0
1000 1005 994 1113 1050 979 995 927 1150 1149 1146 1178 961 913 913 803 724 635 590 487 380 201 195 424 374 318 158 142 147 117 77 29 7 0 0 0 0 0
1137 1172 1100 1050 1147 1164 1020 947 1072 962 1189 1154 1014 983 965 849 731 779 776 719 628 315 529 325 510 227 208 164 184 91 34 42 12 0 0 0 0 0
922 1016 1028 1022 1022 1058 1111 998 1033 885 966 1246 1084 948 953 886 744 685 668 619 696 659 701 640 650 352 223 102 70 45 14 29 12 0 0 0 0 0
663 700 758 836 941 1025 1044 999 947 950 1093 943 901 954 939 954 814 855 868 691 540 598 617 570 378 219 157 117 55 30 5 0 0 0 0 0 0 0
554 616 695 763 759 359 729 898 887 895 910 814 751 736 706 597 538 494 600 699 794 776 590 582 441 246 217 227 63 3 0 0 0 0 0 0 0 0
0 28 13 92 6 0 68 273 578 592 488 385 401 482 279 309 290 216 556 661 663 632 587 428 346 267 438 205 103 147 110 0 0 0 0 0 0 0
0 0 0 0 0 0 0 0 1 0 15 128 332 405 516 581 613 377 247 412 579 610 639 401 418 301 252 375 307 287 138 33 0 0 0 0 0 0
0 0 0 0 0 0 0 0 0 0 0 0 4 142 252 349 409 476 479 342 368 523 673 413 481 521 431 349 350 249 185 101 0 0 0 0 0 0
0 0 0 0 0 0 0 0 0 0 0 0 0 0 76 273 205 211 232 301 336 400 437 496 437 474 386 418 426 367 306 202 60 48 0 0 0 0
0 0 0 0 0 0 0 0 0 0 0 0 0 0 27 128 231 178 246 244 235 356 287 357 386 358 399 401 382 407 247 214 180 72 30 45 1 0
0 0 0 0 0 0 0 0 0 0 0 0 0 0 0 50 41 122 151 169 296 198 211 353 281 279 349 338 311 230 235 196 156 168 65 197 109 27
0 0 0 0 0 0 0 0 0 0 0 0 0 0 1 31 106 166 217 113 84 152 419 578 423 296 76 129 155 230 258 352 352 258 155 267 338 166
0 0 0 0 0 0 0 0 0 0 0 0 0 0 0 5 0 39 101 206 140 123 82 321 232 102 64 0 1 76 310 382 420 430 464 381 437 439
0 0 0 0 0 0 0 0 0 3 1 0 1 3 4 4 4 10 20 10 2 3 1 0 0 2 2 0 0 68 79 360 411 451 470 454 205 1
0 0 0 0 0 2 0 0 0 0 1 1 0 0 0 5 6 4 1 0 1 1 3 1 0 0 0 12 17 9 154 102 248 311 386 412 317 206
0 0 0 0 1 1 2 1 1 6 3 4 5 2 0 0 2 3 1 0 1 2 1 3 1 10 36 33 7 29 94 150 86 59 14 167 258 230
1 1 1 0 0 2 1 0 1 2 8 7 5 4 3 1 0 2 3 3 2 1 0 0 4 29 91 43 28 42 70 146 116 103 55 9 8 12

GFSNE_con_mlcape_096.txt.gz
CAPE
821 758 957 808 897 986 724 819 964 672 656 882 1537 1336 1414 1442 1166 1244 1310 1408 1426 829 598 350 281 442 791 828 804 855 706 429 154 4 0 0 0 0
852 946 978 965 1064 1097 1020 713 653 738 769 615 990 1334 1275 1107 914 1091 1163 1021 727 400 45 52 322 393 452 625 559 603 540 391 153 30 0 0 0 0
837 867 866 821 713 765 895 1112 774 704 591 752 791 849 625 589 622 1008 1062 1200 1172 430 55 30 204 95 404 385 482 318 319 217 89 2 0 0 0 0
713 702 622 820 797 636 679 918 938 842 774 517 546 635 547 604 839 1016 1266 1202 853 332 175 77 120 211 200 171 114 217 184 150 24 0 0 0 0 0
669 788 765 722 819 842 923 887 727 856 896 988 1012 811 827 769 791 713 619 579 699 571 216 96 228 354 280 219 141 61 7 11 13 0 0 0 0 0
788 766 842 815 704 811 798 874 865 924 1003 1032 1023 980 793 895 794 765 880 909 864 845 386 190 452 353 326 190 106 104 52 0 0 0 0 0 0 0
1035 1078 1016 998 991 997 1055 1028 961 952 991 957 992 988 909 949 1087 956 818 686 653 468 464 750 620 751 466 310 161 122 67 6 0 0 0 0 0 0
1196 1271 1207 1153 1143 987 922 856 975 1106 1143 1049 962 947 1047 879 787 780 771 796 622 619 836 711 754 701 559 478 118 33 13 0 0 0 0 0 0 0
956 899 868 929 885 912 867 876 837 775 808 1159 1151 1156 1100 1067 962 906 860 679 644 709 563 737 899 596 592 384 205 84 6 0 0 0 0 0 0 0
399 465 519 561 166 279 588 866 941 957 889 611 613 758 804 785 697 683 608 457 430 537 464 693 826 585 586 422 318 30 2 2 12 0 0 0 0 0
67 37 32 5 0 0 65 315 412 527 471 395 265 258 248 191 164 268 558 560 683 792 681 596 709 536 459 435 403 72 1 14 28 0 0 0 0 0
0 0 0 0 0 0 0 0 0 6 18 20 71 187 257 440 326 144 454 630 708 722 758 540 612 413 626 588 344 421 424 180 43 0 0 0 0 0
0 0 0 0 0 0 0 0 0 0 0 0 0 0 0 85 199 263 145 355 544 613 671 490 509 436 323 458 508 516 406 360 153 39 0 0 0 0
0 0 0 0 0 0 0 0 0 0 0 0 0 0 0 0 0 176 331 189 218 367 495 451 440 438 486 545 573 591 545 368 204 161 60 0 0 0
0 0 0 0 0 0 0 0 0 0 0 0 0 0 0 0 17 34 108 93 184 305 294 296 326 396 428 465 520 559 470 483 426 153 73 7 0 0
0 0 0 0 0 0 0 0 0 0 0 2 2 4 5 4 2 74 119 145 153 143 306 336 352 317 354 457 426 515 535 473 437 352 142 62 1 0
0 0 0 0 0 0 0 0 0 0 0 0 0 0 1 1 1 6 73 26 68 170 221 305 298 357 402 351 299 408 466 367 382 328 230 176 165 42
0 0 0 0 0 0 0 0 0 0 0 3 1 2 4 3 3 2 3 5 8 7 53 83 101 66 84 129 95 92 223 209 204 264 351 273 407 521
0 0 0 0 0 0 2 4 3 2 1 0 4 1 2 0 0 3 4 3 1 0 2 4 3 10 5 0 0 0 1 0 230 432 478 429 456 592
0 0 0 0 0 0 0 0 0 0 0 0 0 0 3 2 2 1 3 2 1 0 0 0 1 7 11 9 6 3 0 0 1 72 226 658 640 112
0 0 0 0 0 0 0 1 2 0 0 6 11 5 1 2 2 2 2 1 0 1 0 0 0 0 0 1 6 1 3 0 1 2 50 228 369 330
0 0 1 1 0 0 1 0 1 1 2 2 0 0 5 5 2 1 1 0 0 0 0 1 3 2 0 0 0 0 6 12 52 0 0 22 202 49
0 1 1 1 0 0 3 5 3 1 1 2 0 0 13 10 5 5 4 2 3 1 0 0 2 5 1 0 0 0 0 10 44 37 19 0 0 0

GFSNE_con_mlcape_099.txt.gz
CAPE
1363 1331 1536 1523 1622 1720 1787 1389 1531 1135 1145 1479 1518 2258 2105 1882 1730 1587 2107 1038 591 234 65 83 362 103 419 808 752 770 720 517 277 74 30 12 0 0
1315 1537 1684 1541 1599 1767 1746 1727 1405 1241 900 1269 1224 1818 1822 1224 873 1303 1748 1210 1624 1149 186 109 154 114 304 370 550 484 443 394 232 28 0 0 0 0
1149 1418 1527 1597 1391 1292 1454 1718 1609 1465 1037 764 1401 1241 1457 1539 1302 1560 1366 1659 1168 876 417 160 45 170 250 215 166 262 332 283 173 20 0 0 0 0
736 912 880 1287 1497 1454 1247 1403 1423 1656 1305 1276 1431 1510 1700 1896 1888 2004 1437 1361 1688 1068 748 110 31 292 346 284 116 70 37 15 63 3 0 0 0 0
807 925 879 920 826 1287 1266 1001 1311 1502 1661 1636 1529 1703 1807 1748 1666 1707 1977 1953 1418 731 494 302 189 479 457 310 187 64 24 6 0 0 0 0 0 0
689 901 796 974 912 874 1025 1021 1069 978 1175 921 1155 1309 1474 1609 1754 1648 1347 1050 959 1088 642 677 802 849 776 649 385 76 16 0 0 0 0 0 0 0
1229 1087 1191 1093 1019 912 1078 886 948 853 901 775 934 1070 1063 1031 1219 1254 1022 858 914 1119 1085 884 702 1145 1102 975 758 213 17 0 0 0 0 0 0 0
1559 1329 1568 1123 1154 759 645 560 717 996 1125 709 961 1144 1693 1770 1344 1302 1157 1024 869 834 1237 995 1039 1197 1229 983 490 260 1 0 0 0 0 0 0 0
1311 1158 1076 1049 499 701 1118 908 835 617 582 1040 1323 1552 1521 1550 1615 1551 1302 1378 1253 1087 1005 991 1107 1229 1277 1137 831 322 1 0 0 0 0 0 0 0
340 247 189 1 0 0 191 856 1198 1319 1499 1316 1323 1373 1521 1510 1518 1428 1371 1070 1143 1132 1363 1323 1018 1133 1219 1261 946 391 12 0 0 0 0 0 0 0
0 0 0 0 0 0 0 0 26 276 266 87 13 12 25 27 66 408 938 1103 1082 892 1094 1354 1050 1116 1210 1170 1188 505 17 54 61 14 0 0 0 0
0 0 0 0 0 0 0 0 0 0 0 0 0 0 0 65 125 246 650 984 1042 1001 1180 1263 1028 976 1005 820 1020 1092 1144 744 347 90 0 0 0 0
0 0 0 0 0 0 0 0 0 0 0 0 0 0 0 0 0 25 419 915 869 798 873 1001 1013 926 884 895 883 951 1062 1108 1146 972 198 0 0 0
0 0 0 0 0 0 0 0 0 0 0 0 0 0 0 0 1 17 53 117 479 772 816 889 823 851 887 927 940 929 972 1094 1167 1127 1115 556 0 0
0 0 0 0 0 0 0 0 0 0 0 0 0 0 5 7 3 7 39 109 226 384 492 672 764 859 825 752 660 642 621 731 982 1147 1064 971 711 461
0 0 0 0 0 0 0 0 0 0 0 0 0 1 1 3 13 9 3 0 82 66 124 478 726 752 596 618 599 724 706 642 501 837 942 1001 965 743
0 0 0 0 0 0 0 0 0 0 0 4 1 2 0 4 2 0 0 0 0 0 12 93 152 138 327 527 458 525 524 477 422 458 683 628 854 993
0 0 0 0 0 0 0 0 0 0 0 0 0 0 0 0 3 0 0 2 2 0 0 0 0 0 3 1 17 70 42 40 44 104 314 531 752 939
0 0 0 0 0 0 0 0 0 0 0 0 0 0 0 0 0 0 0 0 0 0 0 0 0 2 19 8 0 0 0 0 0 7 13 196 545 724
0 0 0 0 0 0 0 0 0 0 0 0 0 0 0 0 0 0 3 1 4 2 0 0 0 0 4 5 1 0 0 0 7 23 59 111 221 137
0 0 0 0 0 0 0 0 0 0 0 0 0 0 0 0 0 0 0 0 0 1 1 0 0 0 2 0 0 0 0 0 0 0 0 1 31 81
0 0 0 0 0 0 0 0 0 0 0 0 0 0 0 0 0 0 1 4 3 3 2 3 2 1 1 0 0 0 0 0 0 0 0 0 10 13
0 0 0 0 0 0 0 0 0 0 0 0 0 0 0 0 0 0 0 0 3 2 2 0 1 1 1 2 0 0 0 0 0 0 0 0 0 0

GFSNE_con_mlcape_102.txt.gz
CAPE
1301 1397 1219 1035 1162 1238 1259 1136 1185 845 895 1718 1207 1439 1529 1119 1053 1176 1135 1276 1117 1407 1239 221 116 141 393 527 718 766 811 703 522 338 141 109 43 0
1062 1441 1456 931 1181 1036 1054 951 967 897 750 621 776 1226 1665 1551 954 1117 1032 953 1230 1492 712 593 163 77 288 284 228 344 526 455 348 210 94 29 2 0
1216 1395 1577 2026 1049 772 722 781 788 796 699 330 491 512 1523 1659 1692 1846 1100 646 553 764 726 562 73 46 356 342 216 87 70 132 218 167 44 4 0 0
876 980 1204 1024 1710 1467 1062 1058 903 1149 927 728 859 867 914 1313 1494 1927 1506 870 948 682 297 473 166 85 419 437 383 170 66 0 1 20 24 0 0 0
809 910 883 955 1113 899 1366 1137 729 1066 1189 1149 804 615 808 1006 992 1009 1119 1055 621 230 217 166 334 450 718 746 735 398 31 8 0 0 0 0 0 0
1103 932 1015 1003 1092 1224 1071 1237 1096 1029 845 964 694 540 562 687 892 601 382 375 410 404 504 540 594 568 779 866 807 575 64 0 0 0 0 0 0 0
1270 1141 1034 1138 855 787 988 1134 1165 997 833 743 596 539 466 1259 731 631 410 376 476 437 372 709 488 527 711 694 837 494 231 20 0 0 0 0 0 0
1212 1409 1144 1099 1282 1166 980 792 783 999 1264 1129 885 622 917 986 707 606 814 782 862 682 1106 855 758 713 815 795 731 660 313 0 0 0 0 0 0 0
1336 1454 1303 480 477 521 687 712 933 905 817 1329 1286 1348 1540 1393 1499 1799 1423 1563 1407 1272 1236 967 881 811 731 826 998 834 331 0 0 0 0 0 0 0
299 204 111 0 0 0 170 598 1031 1216 1174 1376 1511 1466 1489 1173 1011 1066 1115 1394 1511 1382 1284 990 845 849 798 878 1092 935 384 0 0 0 0 0 0 0
0 0 0 0 0 0 0 0 3 40 16 0 0 0 0 0 0 205 610 905 1211 1239 1209 1286 1420 1408 1137 724 907 880 662 174 164 159 141 9 0 0
0 0 0 0 0 0 0 0 0 0 0 0 0 0 0 0 0 113 833 781 852 1061 1175 983 1142 1187 1119 1031 977 1040 1161 363 423 392 311 196 15 0
0 0 0 0 0 0 0 0 0 0 0 0 0 0 0 1 9 22 59 109 89 102 326 679 904 1009 1079 986 1013 1059 1140 1186 1163 1113 233 181 15 28
0 0 0 0 0 0 0 0 0 0 0 0 0 0 0 0 0 0 9 15 123 223 344 766 1033 1019 842 754 826 963 951 843 780 869 1015 542 52 16
0 0 0 0 0 0 0 0 0 0 0 0 0 0 0 0 0 1 0 0 0 5 90 226 376 300 550 705 771 640 775 855 976 859 782 810 1312 926
0 0 0 0 0 0 0 0 0 0 0 0 0 0 0 0 0 0 0 0 0 0 0 2 0 0 1 114 208 322 498 513 616 673 530 607 776 1031
0 0 0 0 0 0 0 0 0 0 0 0 0 0 0 0 0 0 0 0 0 0 0 0 0 0 0 0 3 3 7 122 213 101 182 111 134 260
0 0 0 0 0 0 0 0 0 0 0 0 0 0 0 0 0 0 0 0 0 0 0 0 0 0 0 0 0 0 0 0 1 3 0 0 0 54
0 0 0 0 0 0 0 0 0 0 0 0 0 0 0 0 0 0 0 0 0 0 0 0 0 0 0 0 0 0 0 0 0 0 0 1 3 1
0 0 0 0 0 0 0 0 0 0 0 0 0 0 0 0 0 0 0 0 0 0 0 0 0 0 0 1 0 0 0 0 0 0 0 0 0 0
0 0 0 0 0 0 0 0 0 0 0 0 0 0 0 0 0 0 0 0 0 0 0 0 0 0 0 0 0 0 0 0 0 0 0 0 0 0
0 0 0 0 0 0 0 0 0 0 0 0 0 0 0 0 0 0 0 0 0 0 0 0 0 0 0 0 0 0 0 0 0 0 0 0 0 0
0 0 0 0 0 0 0 0 0 0 0 0 0 0 0 0 0 0 0 0 0 0 0 0 0 0 0 0 0 0 0 0 0 0 0 0 0 0

GFSNE_con_mlcape_105.txt.gz
CAPE
1159 1389 1269 980 591 778 834 801 841 596 617 1886 1134 1369 1431 1423 1183 1281 1268 1049 495 776 1264 622 623 174 179 296 376 415 632 724 692 507 322 180 134 74
698 957 1623 823 1276 782 656 581 566 621 602 475 460 722 1654 1569 1025 1377 1428 1052 785 728 998 462 282 35 119 334 337 270 177 191 358 390 200 107 42 24
1160 1244 962 1221 1221 907 1000 717 385 389 522 624 548 421 919 1490 1324 1601 1103 1404 683 663 643 263 306 32 49 238 351 366 196 104 53 82 98 48 3 0
1044 1071 1112 788 1422 1567 1190 1161 665 819 555 744 643 1008 683 1185 1083 1627 924 848 698 604 317 129 260 162 137 301 602 567 415 78 1 1 1 7 0 0
792 938 1088 1104 1162 1271 1515 1138 709 1215 1158 1020 539 408 575 696 1048 947 1210 1231 505 232 144 95 220 304 314 368 587 668 281 3 0 0 0 0 0 0
1070 1088 999 996 1193 1362 1322 1415 1289 1089 686 913 752 657 592 1293 1407 490 429 278 455 444 416 383 451 458 341 314 499 621 362 108 46 0 0 0 0 0
969 1130 916 941 898 849 808 1094 1583 1133 914 892 666 464 570 1282 590 593 597 469 736 723 610 627 541 528 524 313 797 640 441 249 3 0 0 0 0 0
1431 1083 825 1185 1284 1132 1036 799 897 1239 1512 1277 1012 626 1065 1107 1162 1276 1612 1185 1184 1230 1737 1286 1122 587 565 734 846 806 596 427 0 0 0 0 0 0
1383 1455 1427 599 841 975 830 671 635 622 665 1042 1467 1384 1328 1531 1598 1639 1379 1441 1407 1473 1566 1408 1573 1505 1352 883 754 725 822 324 27 1 0 4 0 0
1271 1058 882 387 0 0 14 510 686 864 988 1128 1375 790 480 280 109 326 602 891 1317 1417 1637 1185 1491 1344 1516 1696 838 739 859 547 192 106 119 86 71 9
53 19 19 0 0 0 1 8 10 27 0 0 0 0 0 0 0 0 188 553 746 878 1187 834 1166 1268 1330 1302 1111 855 734 589 334 293 243 274 97 0
0 0 0 0 0 0 0 0 0 0 0 0 0 0 0 6 0 2 263 259 242 315 622 296 353 569 562 886 1246 1360 1320 578 432 342 323 275 84 161
1 0 0 0 0 0 0 0 0 0 0 0 0 0 1 0 0 0 11 0 5 3 77 376 536 497 421 505 665 872 1042 1039 1125 960 287 208 18 144
0 0 0 0 0 0 0 0 0 0 0 0 0 0 0 0 0 0 7 0 0 0 0 245 208 356 302 240 257 388 702 775 747 817 1219 600 98 7
0 0 0 0 0 0 0 0 0 0 0 0 0 0 0 0 0 0 0 0 0 0 0 0 0 0 0 1 3 4 20 102 293 629 764 937 722 805
0 0 0 0 0 0 0 0 0 0 0 0 0 0 0 0 0 0 0 0 0 0 0 0 0 0 0 0 0 0 0 0 0 7 217 236 139 144
0 0 0 0 0 0 0 0 0 0 0 0 0 0 0 0 0 0 0 0 0 0 0 0 0 0 0 0 0 0 0 0 0 0 0 0 0 0
0 0 0 0 0 0 0 0 0 0 0 0 0 0 0 0 0 0 0 0 0 0 0 0 0 0 0 0 0 0 0 0 0 0 0 0 0 0
0 0 0 0 0 0 0 0 0 0 0 0 0 0 0 0 0 0 0 0 0 0 0 0 0 0 0 0 0 0 0 0 0 0 0 0 0 0
0 0 0 0 0 0 0 0 0 0 0 0 0 0 0 0 0 0 0 0 0 0 0 0 0 0 0 0 0 0 0 0 0 0 0 0 0 0
0 0 0 0 0 0 0 0 0 0 0 0 0 0 0 0 0 0 0 0 0 0 0 0 0 0 0 0 0 0 0 0 0 0 0 0 0 0
0 0 0 0 0 0 0 0 0 0 0 0 0 0 0 0 0 0 0 0 0 0 0 0 0 0 0 0 0 0 0 0 0 0 0 0 0 0
0 0 0 0 0 0 0 0 0 0 0 0 0 0 0 0 0 0 0 0 0 0 0 0 0 0 0 0 0 0 0 0 7 1 0 0 0 0

GFSNE_con_mlcape_108.txt.gz
CAPE
1109 1256 892 1296 1102 1351 293 583 780 690 661 702 921 193 998 725 1119 1261 1423 1133 828 970 876 742 478 147 1 114 230 315 335 307 449 601 483 312 174 182
1330 1198 1620 1255 1114 1367 1165 1046 569 289 539 790 548 1082 955 858 1160 967 1380 857 1047 1163 439 554 409 197 36 57 182 394 296 221 148 144 222 166 75 41
1209 1110 1027 964 1181 1042 875 887 491 588 325 601 373 683 939 963 1453 1274 1409 1022 1003 559 574 436 315 215 134 119 227 494 561 388 111 32 46 48 13 3
914 1014 1001 1115 1135 1506 1337 1401 1051 1178 1143 582 1232 479 305 785 1814 1109 1371 830 955 921 400 370 257 177 259 207 191 428 598 266 26 0 0 12 9 0
898 794 850 1046 930 826 1120 1254 1166 1223 1139 1105 944 752 540 878 832 1055 318 1336 1410 444 576 281 138 213 259 284 179 240 596 371 130 38 0 0 0 0
1068 847 621 833 972 930 1011 919 1100 987 795 973 911 905 791 1192 810 1296 1171 1659 1198 1514 1238 1790 914 755 518 392 120 146 542 450 211 1 0 0 0 0
1464 1414 1126 902 565 549 694 609 881 1209 1231 1116 968 879 997 1059 1288 1574 1542 1434 1431 1324 1662 1578 1649 1848 1674 1072 455 421 564 437 104 1 0 0 0 0
550 684 992 917 967 883 855 712 628 563 695 870 1109 1170 1250 1424 1303 1363 1227 1362 1097 1482 1434 1305 1219 1139 1563 1187 831 776 579 465 96 80 22 2 41 16
1237 1123 914 202 19 103 294 412 722 730 549 721 945 990 1089 1045 660 361 326 336 706 1080 1327 1049 1237 1642 1478 1590 1314 695 690 423 219 256 201 101 107 70
810 1001 216 0 0 0 14 287 264 351 213 126 26 6 0 0 0 0 15 313 842 836 672 726 730 514 470 1021 1087 670 625 463 529 335 183 124 113 147
0 0 0 0 0 0 0 0 0 0 0 0 0 0 0 0 0 0 129 236 295 68 228 152 239 383 722 789 915 714 672 928 677 359 266 82 0 0
0 0 0 0 0 0 0 0 0 0 0 0 0 0 48 4 0 0 76 6 1 0 0 0 244 238 241 637 298 452 901 673 570 581 507 402 45 47
0 0 0 0 0 0 0 0 0 0 0 0 0 0 0 0 0 0 0 0 0 0 0 2 0 0 0 0 83 91 95 166 46 492 1077 628 290 61
0 0 0 0 0 0 0 0 0 0 0 0 0 0 0 0 0 0 0 0 0 0 28 0 1 0 0 0 0 0 0 0 0 50 215 470 183 26
0 0 0 0 0 0 0 0 0 0 0 0 0 0 0 0 0 0 0 0 0 0 0 0 0 0 0 0 0 0 0 0 0 0 0 0 0 0
0 0 0 0 0 0 0 0 0 0 0 0 0 0 0 0 0 0 0 0 0 0 0 0 0 0 0 0 0 0 0 0 0 0 0 0 0 0
0 0 0 0 0 0 0 0 0 0 0 0 0 0 0 0 0 0 0 0 0 0 0 0 0 0 0 0 0 0 0 0 0 0 0 0 0 0
0 0 0 0 0 0 0 0 0 0 0 0 0 0 0 0 0 0 0 0 0 0 0 0 0 0 0 0 0 0 0 0 0 0 0 0 0 0
0 0 0 0 0 0 0 0 0 0 0 0 0 0 0 0 0 0 0 0 0 0 0 0 0 0 0 0 0 0 0 0 0 0 0 0 0 0
0 0 0 0 0 0 0 0 0 0 0 0 0 0 0 0 0 0 0 0 0 0 0 0 0 0 0 0 0 0 0 0 0 0 0 0 0 0
0 0 0 0 0 0 0 0 0 0 0 0 0 0 0 0 0 0 0 0 0 0 0 0 0 0 0 0 0 0 0 0 0 0 0 0 0 0
0 0 0 0 0 0 0 0 0 0 0 0 0 0 0 0 0 0 0 0 0 0 0 0 0 0 0 0 0 0 0 0 0 0 0 0 0 0
0 0 0 0 0 0 0 0 0 0 0 0 0 0 0 0 0 0 0 0 0 0 0 0 0 0 0 0 0 0 0 0 1 0 0 0 1 1

GFSNE_con_mlcape_111.txt.gz
CAPE
660 1134 1132 1278 933 1015 1114 955 827 364 379 209 485 414 246 154 178 715 794 1118 970 935 899 467 439 264 88 34 115 253 321 319 251 350 497 480 339 268
1043 861 1056 782 673 936 819 1212 896 528 243 635 465 730 582 703 945 974 986 1110 1021 846 729 362 336 271 183 63 54 204 423 373 245 147 136 219 221 160
895 608 700 990 993 913 1202 1215 899 1072 543 532 623 618 515 633 987 1440 1301 1491 1013 898 522 419 376 270 151 138 54 83 394 414 77 32 37 49 50 47
630 726 697 705 865 673 872 919 718 929 636 428 525 632 749 575 187 566 1372 1622 1195 1191 1196 1299 369 321 198 391 244 79 156 418 139 50 35 24 35 23
748 751 652 620 769 473 594 830 575 717 512 632 575 752 794 620 450 774 964 1114 1197 1022 1075 1436 1152 1135 925 891 540 180 76 333 269 33 0 0 0 0
973 962 621 469 597 626 638 772 680 482 724 696 554 475 804 1227 999 797 623 950 793 848 1255 1036 1024 1136 1372 1109 245 113 101 290 321 11 0 0 0 0
448 514 732 697 459 425 435 427 355 256 262 294 332 451 553 624 807 863 436 507 173 978 874 1008 950 1309 862 1394 892 309 289 496 314 50 0 0 0 3
494 531 145 101 154 296 314 421 385 545 547 581 620 620 694 762 280 0 0 24 262 614 730 624 710 738 213 1054 772 471 479 542 441 145 3 0 0 0
497 401 57 0 0 0 10 221 201 121 174 298 214 20 0 0 0 0 2 149 265 255 202 327 238 219 271 835 360 575 544 560 396 253 135 12 0 0
1 0 0 0 0 0 0 0 0 0 0 0 0 0 0 0 0 0 0 24 36 31 0 3 183 9 114 386 112 95 500 289 81 201 218 77 70 9
0 0 0 0 0 0 0 0 0 0 0 0 0 0 0 0 0 0 0 0 0 0 0 0 1 0 50 169 0 0 0 0 0 0 11 286 174 89
0 0 0 0 0 0 0 0 0 0 0 0 0 0 0 0 0 0 0 0 0 0 0 0 0 0 0 0 0 0 0 0 0 0 0 0 0 16
0 0 0 0 0 0 0 0 0 0 0 0 0 0 0 0 0 0 0 0 0 0 0 0 0 0 0 0 0 0 0 0 0 0 0 0 0 0
0 0 0 0 0 0 0 0 0 0 0 0 0 0 0 0 0 0 0 0 0 0 0 0 0 0 0 0 0 0 0 0 0 0 0 0 0 0
0 0 0 0 0 0 0 0 0 0 0 0 0 0 0 0 0 0 0 0 0 0 0 0 0 0 0 0 0 0 0 0 0 0 0 0 0 0
0 0 0 0 0 0 0 0 0 0 0 0 0 0 0 0 0 0 0 0 0 0 0 0 0 0 0 0 0 0 0 0 0 0 0 0 0 0
0 0 0 0 0 0 0 0 0 0 0 0 0 0 0 0 0 0 0 0 0 0 0 0 0 0 0 0 0 0 0 0 0 0 0 0 0 0
0 0 0 0 0 0 0 0 0 0 0 0 0 0 0 0 0 0 0 0 0 0 0 0 0 0 0 0 0 0 0 0 0 0 0 0 0 0
0 0 0 0 0 0 0 0 0 0 0 0 0 0 0 0 0 0 0 0 0 0 0 0 0 0 0 0 0 0 0 0 0 0 0 0 0 0
0 0 0 0 0 0 0 0 0 0 0 0 0 0 0 0 0 0 0 0 0 0 0 0 0 0 0 0 0 0 0 0 0 0 0 0 0 0
0 0 0 0 0 0 0 0 0 0 0 0 0 0 0 0 0 0 0 0 0 0 0 0 0 0 0 0 0 0 0 0 0 0 0 0 0 0
0 0 0 0 0 0 0 0 0 0 0 0 0 0 0 0 0 0 0 0 0 0 0 0 0 0 0 0 0 0 0 0 0 0 0 0 2 2
0 0 0 0 0 0 0 0 0 0 0 0 0 0 0 0 0 0 0 0 0 0 0 0 0 0 0 0 0 0 0 0 0 0 0 0 0 0

GFSNE_con_mlcape_114.txt.gz
CAPE
955 1000 918 582 366 612 499 243 263 147 250 416 150 477 434 322 408 391 427 911 1222 1001 637 491 279 318 166 18 45 166 352 329 255 270 495 593 529 448
798 624 729 559 730 826 514 560 566 312 75 333 498 344 591 609 566 1133 1128 1381 1208 1015 1038 296 206 273 347 168 80 30 128 361 168 101 84 126 232 231
703 619 480 767 824 1093 901 867 826 668 229 280 481 737 572 213 170 1157 1401 1198 1049 980 1346 1169 1073 1053 916 718 665 237 23 320 128 36 12 2 20 42
434 573 625 701 730 558 648 713 554 543 384 366 433 667 658 611 532 676 811 1010 781 1068 1251 947 944 1114 1160 697 39 96 23 69 209 79 7 0 0 0
626 644 609 487 436 471 517 577 469 462 632 465 496 449 742 799 564 687 579 283 366 1073 1002 1033 1167 604 976 799 129 46 2 27 128 6 0 0 0 0
507 705 695 630 573 407 532 526 553 393 311 131 129 249 455 670 830 401 35 47 525 740 684 880 472 329 795 788 602 167 51 44 67 0 0 0 0 0
413 495 381 346 356 439 340 389 326 159 154 185 246 357 504 572 99 2 42 172 354 227 369 404 350 352 499 401 366 250 147 196 189 66 0 0 0 0
308 120 71 178 169 133 208 276 325 392 350 388 434 339 10 0 0 0 58 202 279 0 17 157 18 201 238 32 8 19 0 0 0 0 15 0 0 0
290 84 0 0 0 15 101 0 0 0 33 59 0 0 0 0 0 0 0 0 97 0 0 24 0 11 19 0 0 0 0 0 0 0 0 0 0 0
33 0 0 0 0 0 0 0 0 0 0 0 0 0 0 0 0 0 0 0 5 0 0 0 0 0 65 0 0 0 0 0 0 0 0 0 0 0
0 0 0 0 0 0 0 0 0 0 0 0 0 0 0 0 0 0 0 0 0 0 0 0 0 0 0 0 0 0 0 0 0 0 0 0 0 0
0 0 0 0 0 0 0 0 0 0 0 0 0 0 0 0 0 0 0 0 0 0 0 0 0 0 0 0 0 0 0 0 0 0 0 0 0 0
0 0 0 0 0 0 0 0 0 0 0 0 0 0 0 0 0 0 0 0 0 0 0 0 0 0 0 0 0 0 0 0 0 0 0 0 0 0
0 0 0 0 0 0 0 0 0 0 0 0 0 0 0 0 0 0 0 0 0 0 0 0 0 0 0 0 0 0 0 0 0 0 0 0 0 0
0 0 0 0 0 0 0 0 0 0 0 0 0 0 0 0 0 0 0 0 0 0 0 0 0 0 0 0 0 0 0 0 0 0 0 0 0 0
0 0 0 0 0 0 0 0 0 0 0 0 0 0 0 0 0 0 0 0 0 0 0 0 0 0 0 0 0 0 0 0 0 0 0 0 0 0
0 0 0 0 0 0 0 0 0 0 0 0 0 0 0 0 0 0 0 0 0 0 0 0 0 0 0 0 0 0 0 0 0 0 0 0 0 0
0 0 0 0 0 0 0 0 0 0 0 0 0 0 0 0 0 0 0 0 0 0 0 0 0 0 0 0 0 0 0 0 0 0 0 0 0 0
0 0 0 0 0 0 0 0 0 0 0 0 0 0 0 0 0 0 0 0 0 0 0 0 0 0 0 0 0 0 0 0 0 0 0 0 0 0
0 0 0 0 0 0 0 0 0 0 0 0 0 0 0 0 0 0 0 0 0 0 0 0 0 0 0 0 0 0 0 0 0 0 0 0 0 0
0 0 0 0 0 0 0 0 0 0 0 0 0 0 0 0 0 0 0 0 0 0 0 0 0 0 0 0 0 0 0 0 0 0 0 0 0 0
0 0 0 0 0 0 0 0 0 0 0 0 0 0 0 0 0 0 0 0 0 0 0 0 0 0 0 0 0 0 0 0 0 0 0 0 1 2
0 0 0 0 0 0 0 0 0 0 0 0 0 0 0 0 0 0 0 0 0 0 0 0 0 0 0 0 0 0 0 0 0 0 0 0 0 0

GFSNE_con_mlcape_117.txt.gz
CAPE
720 700 592 325 138 344 341 73 213 46 56 274 201 298 539 600 846 997 975 930 910 1233 642 275 169 204 262 153 31 4 97 344 295 229 358 862 865 679
719 609 648 446 517 534 339 399 298 218 74 230 456 484 403 210 582 917 966 954 877 942 923 916 937 668 516 652 610 314 1 100 242 51 30 32 173 338
660 494 465 602 626 753 679 627 613 453 272 196 335 557 432 435 493 696 765 663 633 828 874 789 832 693 628 232 62 214 111 17 234 51 0 0 0 26
408 432 417 519 500 518 495 553 452 427 312 203 266 424 425 589 489 381 146 149 778 831 883 684 417 421 162 0 19 68 9 21 144 19 0 0 0 0
421 400 467 533 450 459 351 394 367 431 461 264 216 344 364 528 461 85 0 403 385 624 720 343 279 104 18 5 0 0 0 2 12 0 0 0 0 0
383 464 620 578 421 364 340 447 469 331 283 54 0 134 312 574 99 0 0 157 132 25 168 87 91 0 0 0 0 0 0 0 0 0 0 0 4 0
374 371 260 319 285 336 412 360 302 129 69 107 180 265 328 20 0 17 77 134 126 0 44 1 5 0 0 0 0 0 0 0 0 0 0 0 0 0
359 202 153 133 144 170 258 286 235 227 260 298 289 187 0 0 0 0 7 71 0 0 0 0 0 0 0 0 0 0 0 0 0 0 0 0 0 0
197 137 6 0 0 70 0 0 0 0 93 131 10 0 0 0 0 0 0 0 0 0 0 0 0 0 0 0 0 0 0 0 0 0 0 0 0 0
37 3 0 0 0 24 0 0 0 0 0 0 0 0 0 0 0 0 0 0 9 0 0 0 0 0 0 0 0 0 0 0 0 0 0 0 0 0
0 0 0 0 0 0 0 0 0 0 0 0 0 0 0 0 0 0 0 0 0 0 0 0 0 0 0 0 0 0 0 0 0 0 0 0 0 0
0 0 0 0 0 0 0 0 0 0 0 0 0 0 0 0 0 0 0 0 0 0 0 0 0 0 0 0 0 0 0 0 0 0 0 0 0 0
0 0 0 0 0 0 0 0 0 0 0 0 0 0 0 0 0 0 0 0 0 0 0 0 0 0 0 0 0 0 0 0 0 0 0 0 0 0
0 0 0 0 0 0 0 0 0 0 0 0 0 0 0 0 0 0 0 0 0 0 0 0 0 0 0 0 0 0 0 0 0 0 0 0 0 0
0 0 0 0 0 0 0 0 0 0 0 0 0 0 0 0 0 0 0 0 0 0 0 0 0 0 0 0 0 0 0 0 0 0 0 0 0 0
0 0 0 0 0 0 0 0 0 0 0 0 0 0 0 0 0 0 0 0 0 0 0 0 0 0 0 0 0 0 0 0 0 0 0 0 0 0
0 0 0 0 0 0 0 0 0 0 0 0 0 0 0 0 0 0 0 0 0 0 0 0 0 0 0 0 0 0 0 0 0 0 0 0 0 0
0 0 0 0 0 0 0 0 0 0 0 0 0 0 0 0 0 0 0 0 0 0 0 0 0 0 0 0 0 0 0 0 0 0 0 0 0 0
0 0 0 0 0 0 0 0 0 0 0 0 0 0 0 0 0 0 0 0 0 0 0 0 0 0 0 0 0 0 0 0 0 0 0 0 0 0
0 0 0 0 0 0 0 0 0 0 0 0 0 0 0 0 0 0 0 0 0 0 0 0 0 0 0 0 0 0 0 0 0 0 0 0 0 0
0 0 0 0 0 0 0 0 0 0 0 0 0 0 0 0 0 0 0 0 0 0 0 0 0 0 0 0 0 0 0 0 0 0 0 0 0 0
0 0 0 0 0 0 0 0 0 0 0 0 0 0 0 0 0 0 0 0 0 0 0 0 0 0 0 0 0 0 0 0 0 0 0 0 0 0
0 0 0 0 0 0 0 0 0 0 0 0 0 0 0 0 0 0 0 0 0 0 0 0 0 0 0 0 0 0 0 0 0 0 0 0 0 0

GFSNE_con_mlcape_120.txt.gz
CAPE
409 511 545 137 46 139 272 56 225 29 43 147 336 479 289 661 891 1105 1026 675 764 734 668 671 683 324 160 288 318 121 0 37 218 212 350 816 905 755
520 570 615 462 345 331 342 321 91 212 134 148 463 468 436 648 677 802 721 448 702 654 534 289 303 355 350 242 183 233 174 0 127 39 21 36 123 365
490 486 343 361 474 479 575 538 494 351 338 172 261 490 661 581 590 189 105 688 825 385 138 64 53 29 5 3 5 1 136 2 101 37 6 2 2 14
302 405 407 318 345 592 489 516 366 406 289 218 203 366 426 531 374 1 378 438 643 153 3 0 0 0 0 0 0 0 0 0 0 0 0 0 0 0
330 276 301 356 490 446 340 367 333 429 392 260 110 298 342 518 204 0 140 18 23 64 1 0 0 0 0 0 0 0 0 0 0 0 0 0 0 0
407 409 405 330 395 386 271 341 417 344 313 198 68 158 291 515 0 0 138 0 0 0 0 0 0 0 0 0 0 0 0 0 0 0 0 0 0 0
89 377 284 240 217 274 291 306 328 198 57 85 144 238 280 2 0 0 71 69 0 0 0 0 0 0 0 0 0 0 0 0 0 0 0 0 0 0
157 288 134 82 59 64 133 137 264 130 138 217 268 244 6 0 0 0 11 128 0 0 0 0 0 0 0 0 0 0 0 0 0 0 0 0 0 0
189 188 50 0 0 0 0 0 0 0 87 199 157 0 0 0 0 0 0 0 0 0 0 0 0 0 0 0 0 0 0 0 0 0 0 0 0 0
78 39 0 0 0 0 0 0 0 0 0 0 0 0 0 0 0 0 0 0 0 0 0 0 0 0 0 0 0 0 0 0 0 0 0 0 0 0
0 0 0 0 0 0 0 0 0 0 0 0 0 0 0 0 0 0 0 0 0 0 0 0 0 0 0 0 0 0 0 0 0 0 0 0 0 0
0 0 0 0 0 0 0 0 0 0 0 0 0 0 0 0 0 0 0 0 0 0 0 0 0 0 1 0 0 0 0 0 0 0 0 0 0 0
0 0 0 0 0 0 0 0 0 0 0 0 0 0 0 0 0 0 0 0 0 0 0 0 0 0 0 0 0 0 0 0 0 0 0 0 0 0
0 0 0 0 0 0 0 0 0 0 0 0 0 0 0 0 0 0 0 0 0 0 0 0 0 0 0 0 0 0 0 0 0 0 0 0 0 0
0 0 0 0 0 0 0 0 0 0 0 0 0 0 0 0 0 0 0 0 0 0 0 0 0 0 0 0 0 0 0 0 0 0 0 0 0 0
0 0 0 0 0 0 0 0 0 0 0 0 0 0 0 0 0 0 0 0 0 0 0 0 0 0 0 0 0 0 0 0 0 0 0 0 0 0
0 0 0 0 0 0 0 0 0 0 0 0 0 0 0 0 0 0 0 0 0 0 0 0 0 0 0 0 0 0 0 0 0 0 0 0 0 0
0 0 0 0 0 0 0 0 0 0 0 0 0 0 0 0 0 0 0 0 0 0 0 0 0 0 0 0 0 0 0 0 0 0 0 0 0 0
0 0 0 0 0 0 0 0 0 0 0 0 0 0 0 0 0 0 0 0 0 0 0 0 0 0 0 0 0 0 0 0 0 0 0 0 0 0
0 0 0 0 0 0 0 0 0 0 0 0 0 0 0 0 0 0 0 0 0 0 0 0 0 0 0 0 0 0 0 0 0 0 0 0 0 0
0 0 0 0 0 0 0 0 0 0 0 0 0 0 0 0 0 0 0 0 0 0 0 0 0 0 0 0 0 0 0 0 0 0 0 0 0 0
0 0 0 0 0 0 0 0 0 0 0 0 0 0 0 0 0 0 0 0 0 0 0 0 0 0 0 0 0 0 0 0 0 0 0 0 0 0
0 0 0 0 0 0 0 0 0 0 0 0 0 0 0 0 0 0 0 0 0 0 0 0 0 0 0 0 0 0 0 0 0 0 0 0 0 0

GFSNE_con_mlcape_123.txt.gz
CAPE
1067 1022 1069 915 416 545 778 645 673 206 137 578 813 1298 1106 1558 1082 1771 1298 502 325 183 131 131 163 212 196 243 280 259 31 24 172 169 181 685 978 770
868 1172 1153 1187 995 834 824 896 679 586 47 469 878 1307 1458 1194 699 961 725 899 34 2 0 0 0 0 9 10 17 59 202 0 62 28 5 12 73 367
1090 1000 1132 1103 873 1082 1200 1100 1072 999 620 600 762 1263 1148 1267 1192 804 1152 1292 0 0 0 0 0 0 0 0 0 0 5 0 6 0 0 0 0 0
975 941 926 835 858 883 885 937 910 965 847 875 674 651 551 1007 661 994 782 845 0 0 0 0 0 0 0 0 0 0 0 0 0 0 0 0 0 0
915 913 597 939 757 854 719 936 681 1078 852 456 646 709 947 1092 431 622 283 211 101 0 0 0 0 0 0 0 0 0 0 0 0 0 0 0 0 0
467 364 555 504 340 406 503 476 419 460 612 699 596 342 700 1180 140 469 192 32 185 0 0 0 0 0 0 0 0 0 0 0 0 0 0 0 0 0
670 698 890 446 186 273 509 428 372 376 250 197 367 602 818 232 122 239 611 0 0 30 0 0 0 0 0 0 0 0 0 0 0 0 0 0 0 0
174 227 489 109 118 23 84 161 334 383 242 298 550 586 739 55 32 91 333 319 1 0 0 0 0 0 0 0 0 0 0 0 0 0 0 0 0 0
401 254 315 119 25 142 0 0 0 0 31 511 310 470 137 21 28 46 215 93 0 0 6 0 0 0 0 0 0 0 0 0 0 0 0 0 0 0
96 306 329 27 4 19 0 0 0 0 0 0 2 18 8 7 19 117 247 0 0 0 0 1 0 0 0 0 0 0 0 0 0 0 0 0 0 0
0 0 1 22 0 0 0 0 0 0 0 0 0 0 0 0 0 34 39 150 63 0 0 0 0 0 0 0 0 0 0 0 0 0 0 0 0 0
0 0 0 0 0 0 0 0 0 0 0 0 0 0 0 0 0 0 0 0 0 0 0 0 0 0 0 0 0 0 0 0 0 0 0 0 0 0
0 0 0 0 0 0 0 0 0 0 0 0 0 0 0 0 0 0 0 0 0 0 0 0 0 0 0 0 0 0 0 0 0 0 0 0 0 0
0 0 0 0 0 0 0 0 0 0 0 0 0 0 0 0 0 0 0 0 0 0 0 0 0 0 0 0 0 0 0 0 0 0 0 0 0 0
0 0 0 0 0 0 0 0 0 0 0 0 0 0 0 0 0 0 0 0 0 0 0 0 0 0 0 0 0 0 0 0 0 0 0 0 0 0
0 0 0 0 0 0 0 0 0 0 0 0 0 0 0 0 0 0 0 0 0 0 0 0 0 0 0 0 0 0 0 0 0 0 0 0 0 0
0 0 0 0 0 0 0 0 0 0 0 0 0 0 0 0 0 0 0 0 0 0 0 0 0 0 0 0 0 0 0 0 0 0 0 0 0 0
0 0 0 0 0 0 0 0 0 0 0 0 0 0 0 0 0 0 0 0 0 0 0 0 0 0 0 0 0 0 0 0 0 0 0 0 0 0
0 0 0 0 0 0 0 0 0 0 0 0 0 0 0 0 0 0 0 0 0 0 0 0 0 0 0 0 0 0 0 0 0 0 0 0 0 0
0 0 0 0 0 0 0 0 0 0 0 0 0 0 0 0 0 0 0 0 0 0 0 0 0 0 0 0 0 0 0 0 0 0 0 0 0 0
0 0 0 0 0 0 0 0 0 0 0 0 0 0 0 0 0 0 0 0 0 0 0 0 0 0 0 0 0 0 0 0 0 0 0 0 0 0
0 0 0 0 0 0 0 0 0 0 0 0 0 0 0 0 0 0 0 0 0 0 0 0 0 0 0 0 0 0 0 0 0 0 0 0 0 0
0 0 0 0 0 0 0 0 0 0 0 0 0 0 0 0 0 0 0 0 0 0 0 0 0 0 0 0 0 0 0 0 0 0 0 0 0 0